Latitude: N 50° 09' 49" Longitude: W 05° 11' 53" Elevation: 168m ASL

There are 8 visitors online

Adverts

<- Previous Day | Today | Next Day ->

All Data for 22 June 2018

Time
A - D
Temp
A - D
Dew Point
A - D
Humidity
A - D
Pressure
A - D
Wind
A - D
Wind Dir Gust
A - D
Rain Rate
A - D
Rain Total
00:00 10.4 6.0 74 1032.0 2.2 E 6.0 0.0 0.0
00:01 10.4 6.0 74 1032.0 5.4 N 6.0 0.0 0.0
00:02 10.4 6.0 74 1032.0 2.2 SW 5.4 0.0 0.0
00:03 10.4 6.0 74 1032.0 3.8 NW 5.4 0.0 0.0
00:04 10.4 6.0 74 1031.8 4.5 NW 5.4 0.0 0.0
00:05 10.4 6.0 74 1031.9 3.8 NW 5.4 0.0 0.0
00:06 10.4 6.0 74 1032.0 3.1 NE 5.4 0.0 0.0
00:07 10.4 6.0 74 1032.0 5.4 N 5.4 0.0 0.0
00:08 10.4 6.0 74 1032.0 2.2 S 5.4 0.0 0.0
00:09 10.4 6.0 74 1032.0 2.2 NW 5.4 0.0 0.0
00:10 10.4 6.0 74 1031.9 5.4 NE 5.4 0.0 0.0
00:11 10.4 6.0 74 1031.9 4.5 NW 5.4 0.0 0.0
00:12 10.4 6.0 74 1031.9 3.1 N 5.4 0.0 0.0
00:13 10.4 6.0 74 1031.9 1.6 NE 5.4 0.0 0.0
00:14 10.4 6.0 74 1031.9 3.8 N 5.4 0.0 0.0
00:15 10.4 6.0 74 1032.0 4.5 NE 5.4 0.0 0.0
00:16 10.4 6.0 74 1032.0 6.0 N 6.0 0.0 0.0
00:17 10.4 6.0 74 1031.9 4.5 NE 6.0 0.0 0.0
00:19 10.4 6.0 74 1031.8 4.5 NW 6.0 0.0 0.0
00:20 10.4 6.0 74 1031.8 3.8 NW 6.0 0.0 0.0
00:21 10.4 6.2 75 1031.9 2.2 N 6.0 0.0 0.0
00:22 10.4 6.2 75 1031.9 1.6 NW 6.0 0.0 0.0
00:23 10.4 6.2 75 1031.9 1.6 NW 6.0 0.0 0.0
00:24 10.4 6.2 75 1031.9 3.8 W 6.0 0.0 0.0
00:25 10.4 6.0 74 1031.8 3.8 NW 6.0 0.0 0.0
00:26 10.4 6.2 75 1031.8 7.6 NE 7.6 0.0 0.0
00:27 10.4 6.2 75 1031.8 5.4 NE 7.6 0.0 0.0
00:28 10.4 6.2 75 1031.8 6.0 NE 7.6 0.0 0.0
00:29 10.4 6.2 75 1031.9 0.7 N 7.6 0.0 0.0
00:30 10.4 6.2 75 1031.9 3.1 NE 7.6 0.0 0.0
00:31 10.4 6.2 75 1031.9 3.8 N 7.6 0.0 0.0
00:32 10.4 6.2 75 1031.8 4.5 NE 7.6 0.0 0.0
00:33 10.4 6.2 75 1031.8 3.1 N 7.6 0.0 0.0
00:34 10.4 6.2 75 1031.7 5.4 SW 7.6 0.0 0.0
00:35 10.3 6.1 75 1031.8 3.8 WNW 7.6 0.0 0.0
00:36 10.3 6.1 75 1031.8 4.5 NW 6.0 0.0 0.0
00:38 10.3 6.1 75 1031.8 3.8 NW 5.4 0.0 0.0
00:39 10.3 6.1 75 1031.8 3.8 W 5.4 0.0 0.0
00:40 10.3 6.1 75 1031.8 3.8 N 5.4 0.0 0.0
00:41 10.3 6.1 75 1031.8 3.8 NW 5.4 0.0 0.0
00:42 10.3 6.1 75 1031.8 2.2 N 5.4 0.0 0.0
00:43 10.3 6.1 75 1031.9 2.2 NE 5.4 0.0 0.0
00:44 10.3 6.1 75 1031.8 3.1 E 5.4 0.0 0.0
00:45 10.3 6.1 75 1031.8 3.8 E 4.5 0.0 0.0
00:46 10.3 6.1 75 1031.8 2.2 NW 4.5 0.0 0.0
00:47 10.3 6.1 75 1031.9 4.5 WNW 4.5 0.0 0.0
00:48 10.3 6.1 75 1031.9 4.5 SW 4.5 0.0 0.0
00:49 10.3 6.1 75 1031.8 3.8 N 4.5 0.0 0.0
00:50 10.3 6.1 75 1032.0 3.8 W 4.5 0.0 0.0
00:51 10.3 6.1 75 1031.9 4.5 NW 4.5 0.0 0.0
00:52 10.3 6.1 75 1031.9 3.1 W 4.5 0.0 0.0
00:53 10.2 6.0 75 1031.9 1.6 NW 4.5 0.0 0.0
00:54 10.2 6.0 75 1031.8 0.7 SE 4.5 0.0 0.0
00:56 10.2 6.0 75 1032.0 2.2 NW 4.5 0.0 0.0
00:57 10.2 6.0 75 1031.9 2.2 W 6.0 0.0 0.0
00:58 10.2 6.2 76 1031.9 3.8 N 6.0 0.0 0.0
00:59 10.2 6.2 76 1032.0 3.8 N 6.0 0.0 0.0
01:00 10.2 6.2 76 1031.9 1.6 N 6.0 0.0 0.0
01:01 10.2 6.2 76 1031.9 1.6 N 6.0 0.0 0.0
01:02 10.2 6.2 76 1032.0 1.6 N 6.0 0.0 0.0
01:03 10.2 6.2 76 1031.9 1.6 N 6.0 0.0 0.0
01:04 10.2 6.2 76 1031.9 1.6 N 6.0 0.0 0.0
01:05 10.1 6.1 76 1031.8 3.8 N 6.0 0.0 0.0
01:06 10.1 6.1 76 1031.8 4.5 N 6.0 0.0 0.0
01:07 10.1 6.1 76 1031.8 3.8 SW 6.0 0.0 0.0
01:08 10.1 6.1 76 1031.7 4.5 W 4.5 0.0 0.0
01:09 10.2 6.2 76 1031.8 2.2 NW 4.5 0.0 0.0
01:10 10.1 6.1 76 1031.8 3.8 N 4.5 0.0 0.0
01:11 10.2 6.2 76 1031.8 3.8 N 4.5 0.0 0.0
01:12 10.1 6.1 76 1031.9 3.1 NW 4.5 0.0 0.0
01:13 10.1 6.1 76 1031.8 1.6 N 4.5 0.0 0.0
01:14 10.1 6.1 76 1031.8 3.1 NW 4.5 0.0 0.0
01:15 10.1 6.1 76 1031.8 4.5 NW 4.5 0.0 0.0
01:16 10.1 6.1 76 1031.8 2.2 N 4.5 0.0 0.0
01:17 10.1 6.1 76 1031.7 3.8 NW 4.5 0.0 0.0
01:18 10.1 6.1 76 1031.8 4.5 N 4.5 0.0 0.0
01:19 10.1 6.1 76 1031.7 4.5 NE 4.5 0.0 0.0
01:20 10.1 6.1 76 1031.6 6.0 NE 6.0 0.0 0.0
01:22 10.1 6.3 77 1031.6 3.1 N 6.0 0.0 0.0
01:23 10.1 6.3 77 1031.6 2.2 N 6.0 0.0 0.0
01:24 10.1 6.3 77 1031.7 3.8 N 6.0 0.0 0.0
01:25 10.1 6.3 77 1031.7 3.8 NE 6.0 0.0 0.0
01:26 10.1 6.3 77 1031.7 3.8 NE 6.0 0.0 0.0
01:27 10.1 6.3 77 1031.6 3.1 N 6.0 0.0 0.0
01:28 10.1 6.3 77 1031.6 1.6 NW 6.0 0.0 0.0
01:29 10.1 6.3 77 1031.6 2.2 N 6.0 0.0 0.0
01:30 10.1 6.3 77 1031.7 2.2 N 6.0 0.0 0.0
01:31 10.0 6.2 77 1031.8 3.1 N 4.5 0.0 0.0
01:32 10.1 6.3 77 1031.7 3.8 N 3.8 0.0 0.0
01:33 10.0 6.2 77 1031.7 3.8 N 3.8 0.0 0.0
01:34 10.0 6.2 77 1031.7 5.4 NE 5.4 0.0 0.0
01:35 10.0 6.2 77 1031.4 3.1 NW 5.4 0.0 0.0
01:36 10.0 6.2 77 1031.6 3.8 W 5.4 0.0 0.0
01:37 10.0 6.2 77 1031.6 4.5 NE 5.4 0.0 0.0
01:38 10.0 6.2 77 1031.8 3.8 NE 5.4 0.0 0.0
01:39 10.0 6.3 78 1031.7 2.2 NE 5.4 0.0 0.0
01:41 10.0 6.3 78 1031.6 3.8 NNE 5.4 0.0 0.0
01:42 10.0 6.3 78 1031.7 4.5 NW 5.4 0.0 0.0
01:43 10.0 6.3 78 1031.8 3.1 NE 5.4 0.0 0.0
01:44 10.0 6.3 78 1031.7 5.4 NE 5.4 0.0 0.0
01:45 10.0 6.3 78 1031.6 3.8 N 5.4 0.0 0.0
01:46 10.0 6.3 78 1031.6 4.5 NW 5.4 0.0 0.0
01:47 10.0 6.3 78 1031.6 6.0 NW 6.0 0.0 0.0
01:48 10.0 6.3 78 1031.6 4.5 SW 6.0 0.0 0.0
01:49 10.0 6.3 78 1031.7 6.0 NNW 6.0 0.0 0.0
01:50 10.0 6.3 78 1031.7 4.5 N 6.0 0.0 0.0
01:51 10.0 6.3 78 1031.6 5.4 SE 6.0 0.0 0.0
01:52 10.0 6.3 78 1031.7 3.1 NW 6.0 0.0 0.0
01:53 10.0 6.3 78 1031.7 3.1 N 6.0 0.0 0.0
01:54 10.0 6.3 78 1031.7 4.5 N 6.0 0.0 0.0
01:55 10.0 6.3 78 1031.8 5.4 N 6.0 0.0 0.0
01:56 10.0 6.3 78 1031.8 4.5 NW 6.0 0.0 0.0
01:57 10.0 6.3 78 1031.8 3.8 E 6.0 0.0 0.0
01:58 10.0 6.5 79 1031.8 2.2 NNE 6.0 0.0 0.0
02:00 10.0 6.5 79 1031.6 6.0 NW 6.0 0.0 0.0
02:01 10.0 6.5 79 1031.8 4.5 W 6.0 0.0 0.0
02:02 10.0 6.5 79 1031.7 3.8 NW 6.0 0.0 0.0
02:03 10.0 6.5 79 1031.7 3.8 NW 6.0 0.0 0.0
02:04 10.0 6.5 79 1031.8 3.8 NW 6.0 0.0 0.0
02:05 10.0 6.5 79 1031.8 2.2 NE 6.0 0.0 0.0
02:06 10.0 6.5 79 1031.8 2.2 E 6.0 0.0 0.0
02:07 10.0 6.5 79 1031.9 4.5 N 6.0 0.0 0.0
02:08 10.0 6.5 79 1031.9 4.5 N 6.0 0.0 0.0
02:09 10.0 6.5 79 1031.8 6.0 NW 6.0 0.0 0.0
02:10 10.0 6.5 79 1031.6 4.5 NNW 6.0 0.0 0.0
02:11 10.0 6.5 79 1031.7 6.0 NE 6.0 0.0 0.0
02:12 10.0 6.5 79 1031.8 3.8 SE 6.0 0.0 0.0
02:13 10.0 6.5 79 1031.8 3.1 W 6.0 0.0 0.0
02:14 10.0 6.5 79 1031.8 3.8 N 6.0 0.0 0.0
02:15 10.0 6.5 79 1031.7 3.8 E 6.0 0.0 0.0
02:16 10.0 6.7 80 1031.8 3.1 W 6.0 0.0 0.0
02:17 10.0 6.7 80 1031.8 3.8 NE 6.0 0.0 0.0
02:19 10.0 6.5 79 1031.8 4.5 N 6.0 0.0 0.0
02:20 10.0 6.7 80 1031.8 3.1 NW 6.0 0.0 0.0
02:21 10.0 6.7 80 1031.7 3.8 N 4.5 0.0 0.0
02:22 10.0 6.7 80 1031.7 3.8 N 4.5 0.0 0.0
02:23 10.0 6.7 80 1031.7 3.8 N 4.5 0.0 0.0
02:24 10.0 6.7 80 1031.6 1.6 S 4.5 0.0 0.0
02:25 10.0 6.7 80 1031.7 4.5 N 4.5 0.0 0.0
02:26 10.0 6.7 80 1031.7 3.1 N 4.5 0.0 0.0
02:27 10.0 6.7 80 1031.9 3.8 N 4.5 0.0 0.0
02:28 10.0 6.7 80 1031.9 3.8 N 4.5 0.0 0.0
02:29 10.0 6.7 80 1031.8 3.1 N 4.5 0.0 0.0
02:30 10.0 6.7 80 1031.8 3.1 N 4.5 0.0 0.0
02:31 10.0 6.7 80 1031.9 3.1 N 4.5 0.0 0.0
02:32 10.0 6.7 80 1031.9 3.8 N 4.5 0.0 0.0
02:33 10.0 6.7 80 1031.7 5.4 NE 5.4 0.0 0.0
02:34 10.0 6.7 80 1031.7 6.0 N 6.0 0.0 0.0
02:35 10.0 6.7 80 1031.6 3.1 N 6.0 0.0 0.0
02:36 10.0 6.7 80 1031.8 3.8 NW 6.0 0.0 0.0
02:38 9.9 6.6 80 1031.8 3.8 NW 6.0 0.0 0.0
02:39 9.9 6.6 80 1031.9 3.1 SW 6.0 0.0 0.0
02:40 9.9 6.6 80 1031.7 3.1 N 6.0 0.0 0.0
02:41 9.9 6.6 80 1031.7 3.1 N 6.0 0.0 0.0
02:42 9.9 6.8 81 1031.8 3.1 NW 6.0 0.0 0.0
02:43 9.9 6.6 80 1031.6 3.8 NNE 6.0 0.0 0.0
02:44 9.9 6.8 81 1031.8 2.2 N 6.0 0.0 0.0
02:45 9.9 6.8 81 1031.8 3.8 NE 6.0 0.0 0.0
02:46 9.9 6.8 81 1031.7 3.1 NW 6.0 0.0 0.0
02:47 9.9 6.8 81 1031.7 1.6 NW 3.8 0.0 0.0
02:48 9.9 6.8 81 1031.7 1.6 NW 3.8 0.0 0.0
02:49 9.9 6.8 81 1031.9 3.8 N 6.0 0.0 0.0
02:50 9.9 6.8 81 1031.9 4.5 N 6.0 0.0 0.0
02:51 9.9 6.8 81 1031.9 3.8 NE 6.0 0.0 0.0
02:52 9.9 6.8 81 1031.8 5.4 NW 6.0 0.0 0.0
02:53 9.9 6.8 81 1031.8 3.8 E 6.0 0.0 0.0
02:54 9.9 6.8 81 1031.8 4.5 N 6.0 0.0 0.0
02:55 9.9 6.8 81 1031.7 2.2 N 6.0 0.0 0.0
02:57 9.9 6.8 81 1031.7 3.8 N 6.0 0.0 0.0
02:58 9.9 6.8 81 1031.7 4.5 N 5.4 0.0 0.0
02:59 9.9 6.8 81 1031.7 2.2 NW 5.4 0.0 0.0
03:00 9.9 6.8 81 1031.7 2.2 NW 5.4 0.0 0.0
03:01 9.9 6.8 81 1031.8 2.2 NW 5.4 0.0 0.0
03:02 9.9 6.8 81 1031.8 2.2 NW 5.4 0.0 0.0
03:03 9.9 6.8 81 1031.8 2.2 NW 5.4 0.0 0.0
03:04 9.9 6.8 81 1031.7 2.2 NW 5.4 0.0 0.0
03:05 9.9 6.8 81 1031.9 2.2 NW 5.4 0.0 0.0
03:06 9.8 6.7 81 1031.9 4.5 NW 5.4 0.0 0.0
03:07 9.8 6.7 81 1031.8 5.4 ENE 5.4 0.0 0.0
03:08 9.8 6.7 81 1031.9 5.4 NE 5.4 0.0 0.0
03:09 9.8 6.7 81 1032.0 3.8 N 5.4 0.0 0.0
03:10 9.8 6.7 81 1032.0 4.5 NE 5.4 0.0 0.0
03:11 9.8 6.7 81 1031.9 6.0 WNW 6.0 0.0 0.0
03:12 9.8 6.7 81 1031.9 2.2 NE 6.0 0.0 0.0
03:13 9.8 6.7 81 1032.0 5.4 W 6.0 0.0 0.0
03:14 9.8 6.9 82 1031.8 2.2 N 6.0 0.0 0.0
03:15 9.8 6.7 81 1031.8 3.1 N 6.0 0.0 0.0
03:16 9.8 6.9 82 1031.9 3.1 W 6.0 0.0 0.0
03:18 9.8 6.9 82 1031.8 4.5 N 6.0 0.0 0.0
03:19 9.8 6.9 82 1032.0 5.4 NW 6.0 0.0 0.0
03:20 9.8 6.9 82 1032.0 3.1 N 6.0 0.0 0.0
03:21 9.8 6.9 82 1032.0 3.1 N 6.0 0.0 0.0
03:22 9.8 6.9 82 1032.0 3.1 N 5.4 0.0 0.0
03:23 9.8 6.9 82 1031.9 6.0 NE 6.0 0.0 0.0
03:24 9.8 6.9 82 1031.9 3.1 SW 6.9 0.0 0.0
03:25 9.8 6.9 82 1031.9 0.7 N 6.9 0.0 0.0
03:26 9.8 6.9 82 1031.7 2.2 N 6.9 0.0 0.0
03:27 9.8 6.9 82 1031.8 5.4 W 6.9 0.0 0.0
03:28 9.8 6.9 82 1031.9 4.5 N 6.9 0.0 0.0
03:29 9.8 6.9 82 1031.8 3.1 W 6.9 0.0 0.0
03:30 9.7 6.8 82 1031.8 4.5 NW 6.9 0.0 0.0
03:31 9.8 6.9 82 1031.9 4.5 N 6.9 0.0 0.0
03:32 9.7 6.8 82 1031.8 5.4 NW 6.9 0.0 0.0
03:33 9.7 6.8 82 1031.8 3.1 S 5.4 0.0 0.0
03:34 9.7 6.8 82 1031.9 3.1 N 5.4 0.0 0.0
03:35 9.7 6.8 82 1031.7 2.2 NW 5.4 0.0 0.0
03:37 9.7 6.8 82 1032.0 5.4 NE 5.4 0.0 0.0
03:38 9.7 6.8 82 1032.0 3.1 NE 5.4 0.0 0.0
03:39 9.7 6.8 82 1032.0 5.4 NW 5.4 0.0 0.0
03:40 9.7 6.8 82 1032.0 5.4 N 5.4 0.0 0.0
03:41 9.7 6.8 82 1032.0 7.6 N 7.6 0.0 0.0
03:42 9.7 6.8 82 1032.1 3.1 NW 7.6 0.0 0.0
03:43 9.7 6.8 82 1031.9 1.6 NW 7.6 0.0 0.0
03:44 9.7 6.8 82 1031.9 0.7 NW 7.6 0.0 0.0
03:45 9.7 6.8 82 1031.9 2.2 N 7.6 0.0 0.0
03:46 9.7 6.8 82 1031.9 2.2 E 7.6 0.0 0.0
03:47 9.6 6.7 82 1032.0 3.8 NW 7.6 0.0 0.0
03:48 9.6 6.9 83 1032.0 2.2 N 7.6 0.0 0.0
03:49 9.6 6.9 83 1032.1 3.1 NE 7.6 0.0 0.0
03:50 9.6 6.9 83 1032.0 2.2 NW 7.6 0.0 0.0
03:51 9.6 6.9 83 1032.1 3.8 W 4.5 0.0 0.0
03:52 9.6 6.9 83 1031.9 2.2 NW 4.5 0.0 0.0
03:53 9.6 6.9 83 1032.0 3.1 NW 4.5 0.0 0.0
03:54 9.5 6.8 83 1032.0 4.5 N 4.5 0.0 0.0
03:55 9.6 6.9 83 1032.0 2.2 N 4.5 0.0 0.0
03:56 9.5 6.8 83 1032.1 3.1 N 4.5 0.0 0.0
03:58 9.5 6.8 83 1031.9 3.1 NE 4.5 0.0 0.0
03:59 9.5 6.8 83 1032.1 1.6 NW 4.5 0.0 0.0
04:00 9.5 6.8 83 1032.1 0.7 N 4.5 0.0 0.0
04:01 9.5 6.8 83 1031.9 0.7 N 4.5 0.0 0.0
04:02 9.5 6.8 83 1032.1 3.1 NW 4.5 0.0 0.0
04:03 9.5 6.8 83 1032.0 1.6 NNW 4.5 0.0 0.0
04:04 9.5 6.8 83 1032.1 3.1 NE 4.5 0.0 0.0
04:05 9.5 6.8 83 1032.2 4.5 E 4.5 0.0 0.0
04:06 9.5 6.8 83 1032.1 1.6 NE 4.5 0.0 0.0
04:07 9.4 6.7 83 1032.0 3.8 N 4.5 0.0 0.0
04:08 9.4 6.7 83 1032.0 3.8 N 4.5 0.0 0.0
04:09 9.4 6.7 83 1032.1 2.2 NW 4.5 0.0 0.0
04:10 9.4 6.7 83 1031.9 3.8 NW 4.5 0.0 0.0
04:11 9.4 6.7 83 1032.0 3.1 NW 4.5 0.0 0.0
04:12 9.4 6.7 83 1031.9 3.8 N 4.5 0.0 0.0
04:13 9.4 6.7 83 1031.9 3.1 NE 4.5 0.0 0.0
04:15 9.4 6.7 83 1032.1 3.1 NW 3.8 0.0 0.0
04:16 9.3 6.6 83 1032.1 2.2 NNE 3.8 0.0 0.0
04:17 9.3 6.6 83 1032.1 2.2 NNE 3.8 0.0 0.0
04:18 9.3 6.7 84 1032.0 2.2 N 3.8 0.0 0.0
04:19 9.3 6.7 84 1032.1 3.1 NE 3.8 0.0 0.0
04:20 9.3 6.7 84 1032.0 3.1 NE 3.8 0.0 0.0
04:21 9.3 6.6 83 1032.2 3.1 E 3.8 0.0 0.0
04:22 9.3 6.7 84 1032.1 1.6 N 3.8 0.0 0.0
04:23 9.3 6.7 84 1032.1 2.2 N 3.1 0.0 0.0
04:24 9.3 6.7 84 1032.2 4.5 E 4.5 0.0 0.0
04:25 9.3 6.7 84 1032.0 3.1 N 4.5 0.0 0.0
04:26 9.3 6.7 84 1032.2 3.8 NW 4.5 0.0 0.0
04:27 9.3 6.7 84 1032.2 5.4 NW 5.4 0.0 0.0
04:28 9.3 6.7 84 1032.1 4.5 N 5.4 0.0 0.0
04:30 9.3 6.7 84 1032.0 2.2 NNE 5.4 0.0 0.0
04:31 9.3 6.7 84 1032.1 2.2 NE 5.4 0.0 0.0
04:32 9.3 6.7 84 1032.2 5.4 N 5.4 0.0 0.0
04:33 9.3 6.7 84 1032.1 3.1 N 5.4 0.0 0.0
04:34 9.3 6.7 84 1032.2 3.1 N 5.4 0.0 0.0
04:35 9.2 6.6 84 1032.2 4.5 NE 5.4 0.0 0.0
04:36 9.3 6.7 84 1032.1 3.8 NE 5.4 0.0 0.0
04:37 9.3 6.7 84 1032.1 6.0 NE 6.0 0.0 0.0
04:38 9.3 6.7 84 1032.2 3.1 NE 6.0 0.0 0.0
04:39 9.3 6.7 84 1032.1 3.8 N 6.0 0.0 0.0
04:40 9.3 6.9 85 1032.1 4.5 NE 6.0 0.0 0.0
04:41 9.3 6.7 84 1032.2 3.8 N 6.0 0.0 0.0
04:42 9.2 6.8 85 1032.1 3.1 NE 6.0 0.0 0.0
04:43 9.2 6.8 85 1032.1 3.8 NE 6.0 0.0 0.0
04:44 9.2 6.8 85 1032.1 3.8 NE 6.0 0.0 0.0
04:46 9.2 6.8 85 1032.1 3.8 NE 6.0 0.0 0.0
04:47 9.2 6.8 85 1032.1 3.8 NE 4.5 0.0 0.0
04:48 9.2 6.8 85 1032.1 2.2 NE 4.5 0.0 0.0
04:49 9.2 6.8 85 1032.1 5.4 N 5.4 0.0 0.0
04:50 9.2 6.8 85 1032.2 2.2 NE 5.4 0.0 0.0
04:51 9.2 6.8 85 1032.0 5.4 NE 5.4 0.0 0.0
04:52 9.2 6.8 85 1032.2 3.1 NW 5.4 0.0 0.0
04:53 9.2 6.8 85 1032.1 5.4 NW 5.4 0.0 0.0
04:54 9.2 6.8 85 1032.1 3.8 NE 5.4 0.0 0.0
04:55 9.2 6.8 85 1032.1 3.1 NE 5.4 0.0 0.0
04:56 9.2 6.8 85 1032.1 4.5 N 5.4 0.0 0.0
04:57 9.2 6.8 85 1032.2 3.8 NE 5.4 0.0 0.0
04:58 9.2 6.8 85 1032.1 4.5 N 5.4 0.0 0.0
04:59 9.2 6.8 85 1032.1 4.5 NE 5.4 0.0 0.0
05:01 9.1 6.7 85 1031.9 3.1 NE 5.4 0.0 0.0
05:03 9.2 6.8 85 1032.1 3.8 ENE 4.5 0.0 0.0
05:04 9.2 6.8 85 1032.0 4.5 N 4.5 0.0 0.0
05:05 9.2 6.8 85 1032.0 4.5 N 4.5 0.0 0.0
05:06 9.2 6.8 85 1032.1 3.8 NNE 4.5 0.0 0.0
05:07 9.1 6.7 85 1032.1 3.8 NE 4.5 0.0 0.0
05:08 9.1 6.7 85 1032.1 3.1 NE 4.5 0.0 0.0
05:09 9.1 6.7 85 1032.3 3.8 NE 4.5 0.0 0.0
05:10 9.1 6.7 85 1032.2 3.8 NE 4.5 0.0 0.0
05:11 9.1 6.7 85 1032.1 3.8 NE 4.5 0.0 0.0
05:12 9.1 6.7 85 1032.2 3.8 NW 4.5 0.0 0.0
05:13 9.1 6.7 85 1032.0 4.5 N 4.5 0.0 0.0
05:14 9.1 6.9 86 1032.1 4.5 N 4.5 0.0 0.0
05:15 9.1 6.7 85 1032.2 4.5 N 4.5 0.0 0.0
05:17 9.1 6.9 86 1032.2 3.1 NE 4.5 0.0 0.0
05:18 9.1 6.9 86 1032.3 3.8 NE 4.5 0.0 0.0
05:19 9.0 6.8 86 1032.3 4.5 ENE 4.5 0.0 0.0
05:20 9.1 6.9 86 1032.2 3.1 E 4.5 0.0 0.0
05:21 9.0 6.8 86 1032.2 3.8 NE 4.5 0.0 0.0
05:22 9.0 6.8 86 1032.3 3.8 NE 4.5 0.0 0.0
05:23 9.0 6.8 86 1032.2 3.8 NE 4.5 0.0 0.0
05:24 9.0 6.8 86 1032.3 3.1 N 4.5 0.0 0.0
05:25 9.1 6.9 86 1032.3 3.8 ENE 4.5 0.0 0.0
05:26 9.0 6.8 86 1032.2 4.5 E 4.5 0.0 0.0
05:27 9.0 6.8 86 1032.3 3.8 NE 4.5 0.0 0.0
05:28 9.0 6.8 86 1032.3 3.1 NE 4.5 0.0 0.0
05:29 9.0 6.8 86 1032.3 3.8 NE 4.5 0.0 0.0
05:30 9.0 6.8 86 1032.4 3.8 NE 4.5 0.0 0.0
05:32 9.0 6.8 86 1032.3 3.8 NE 4.5 0.0 0.0
05:33 9.0 6.8 86 1032.3 3.8 NE 4.5 0.0 0.0
05:34 9.0 6.8 86 1032.3 3.8 N 4.5 0.0 0.0
05:35 9.0 6.8 86 1032.2 3.8 NE 4.5 0.0 0.0
05:36 9.0 6.8 86 1032.2 2.2 N 4.5 0.0 0.0
05:37 9.0 6.8 86 1032.2 3.8 NE 4.5 0.0 0.0
05:38 9.0 7.0 87 1032.3 1.6 W 4.5 0.0 0.0
05:39 9.0 7.0 87 1032.2 3.1 NE 4.5 0.0 0.0
05:40 9.0 6.8 86 1032.3 3.1 N 4.5 0.0 0.0
05:41 9.0 7.0 87 1032.4 3.8 NE 4.5 0.0 0.0
05:42 9.0 7.0 87 1032.4 3.8 N 4.5 0.0 0.0
05:43 9.0 7.0 87 1032.4 3.1 NW 4.5 0.0 0.0
05:44 9.0 7.0 87 1032.4 3.1 NE 3.8 0.0 0.0
05:46 9.0 7.0 87 1032.3 2.2 N 3.8 0.0 0.0
05:47 9.0 7.0 87 1032.4 3.1 NE 3.8 0.0 0.0
05:48 9.0 7.0 87 1032.3 4.5 N 4.5 0.0 0.0
05:49 9.0 7.0 87 1032.4 3.8 NE 4.5 0.0 0.0
05:50 9.0 7.0 87 1032.4 3.8 NE 4.5 0.0 0.0
05:51 9.0 7.0 87 1032.4 4.5 NE 4.5 0.0 0.0
05:52 9.0 7.0 87 1032.3 3.1 N 4.5 0.0 0.0
05:53 9.0 7.0 87 1032.3 4.5 N 4.5 0.0 0.0
05:54 9.0 7.0 87 1032.4 3.8 N 4.5 0.0 0.0
05:55 9.0 7.0 87 1032.3 3.8 NW 4.5 0.0 0.0
05:56 9.1 7.1 87 1032.3 2.2 N 4.5 0.0 0.0
05:57 9.1 7.1 87 1032.3 3.8 E 4.5 0.0 0.0
05:58 9.1 7.1 87 1032.2 3.8 N 4.5 0.0 0.0
05:59 9.1 7.1 87 1032.2 5.4 NE 5.4 0.0 0.0
06:01 9.1 7.2 88 1032.3 1.6 NE 5.4 0.0 0.0
06:02 9.1 7.2 88 1032.3 1.6 NE 5.4 0.0 0.0
06:03 9.1 7.2 88 1032.3 1.6 NE 5.4 0.0 0.0
06:04 9.1 7.2 88 1032.2 1.6 NE 5.4 0.0 0.0
06:05 9.1 7.2 88 1032.3 1.6 NE 5.4 0.0 0.0
06:06 9.2 7.3 88 1032.3 3.1 NW 5.4 0.0 0.0
06:07 9.2 7.3 88 1032.3 4.5 NW 5.4 0.0 0.0
06:08 9.2 7.3 88 1032.3 3.1 NE 5.4 0.0 0.0
06:09 9.2 7.3 88 1032.4 3.1 NNE 4.5 0.0 0.0
06:10 9.2 7.3 88 1032.4 2.2 W 4.5 0.0 0.0
06:11 9.3 7.4 88 1032.3 3.1 NW 4.5 0.0 0.0
06:12 9.3 7.4 88 1032.3 3.8 NE 4.5 0.0 0.0
06:13 9.3 7.4 88 1032.4 4.5 NW 4.5 0.0 0.0
06:15 9.3 7.4 88 1032.3 2.2 NE 5.4 0.0 0.0
06:16 9.3 7.4 88 1032.3 2.2 NE 5.4 0.0 0.0
06:17 9.3 7.4 88 1032.4 5.4 NW 5.4 0.0 0.0
06:18 9.3 7.4 88 1032.3 3.8 N 5.4 0.0 0.0
06:19 9.4 7.5 88 1032.4 3.1 NW 5.4 0.0 0.0
06:20 9.4 7.5 88 1032.3 3.1 NW 5.4 0.0 0.0
06:21 9.4 7.5 88 1032.5 3.1 N 5.4 0.0 0.0
06:22 9.5 7.6 88 1032.4 4.5 N 5.4 0.0 0.0
06:23 9.5 7.6 88 1032.4 4.5 N 5.4 0.0 0.0
06:24 9.5 7.8 89 1032.4 3.1 NE 5.4 0.0 0.0
06:25 9.5 7.8 89 1032.5 5.4 N 5.4 0.0 0.0
06:26 9.6 7.9 89 1032.4 5.4 NW 5.4 0.0 0.0
06:27 9.6 7.9 89 1032.4 4.5 W 5.4 0.0 0.0
06:29 9.6 7.9 89 1032.4 4.5 N 5.4 0.0 0.0
06:30 9.6 7.9 89 1032.3 5.4 N 5.4 0.0 0.0
06:31 9.6 7.9 89 1032.5 2.2 NE 5.4 0.0 0.0
06:32 9.7 8.0 89 1032.5 4.5 NW 5.4 0.0 0.0
06:33 9.7 8.0 89 1032.5 4.5 N 5.4 0.0 0.0
06:34 9.7 8.0 89 1032.5 2.2 NE 5.4 0.0 0.0
06:35 9.7 8.0 89 1032.4 4.5 NW 5.4 0.0 0.0
06:36 9.8 8.1 89 1032.5 3.8 N 5.4 0.0 0.0
06:37 9.8 8.1 89 1032.5 4.5 NW 5.4 0.0 0.0
06:38 9.8 8.1 89 1032.3 6.0 W 6.0 0.0 0.0
06:39 9.8 8.1 89 1032.6 3.8 N 6.0 0.0 0.0
06:40 9.9 8.2 89 1032.5 4.5 E 6.0 0.0 0.0
06:41 9.9 8.2 89 1032.6 7.6 NE 7.6 0.0 0.0
06:43 9.9 8.2 89 1032.4 3.1 N 7.6 0.0 0.0
06:44 9.9 8.2 89 1032.4 3.1 N 7.6 0.0 0.0
06:45 10.0 8.3 89 1032.3 4.5 NE 7.6 0.0 0.0
06:46 10.0 8.3 89 1032.4 6.0 NE 7.6 0.0 0.0
06:47 10.0 8.3 89 1032.4 4.5 N 7.6 0.0 0.0
06:48 10.0 8.3 89 1032.5 4.5 NE 7.6 0.0 0.0
06:49 10.0 8.3 89 1032.5 7.6 N 7.6 0.0 0.0
06:50 10.1 8.4 89 1032.5 5.4 NE 7.6 0.0 0.0
06:51 10.1 8.4 89 1032.3 3.1 NE 7.6 0.0 0.0
06:52 10.1 8.5 90 1032.4 3.8 N 7.6 0.0 0.0
06:53 10.1 8.4 89 1032.5 4.5 N 7.6 0.0 0.0
06:54 10.1 8.4 89 1032.5 5.4 NE 7.6 0.0 0.0
06:55 10.2 8.5 89 1032.6 4.5 E 7.6 0.0 0.0
06:56 10.2 8.5 89 1032.5 5.4 NE 7.6 0.0 0.0
06:58 10.2 8.6 90 1032.4 5.4 NW 7.6 0.0 0.0
06:59 10.2 8.6 90 1032.5 4.5 N 6.0 0.0 0.0
07:00 10.2 8.6 90 1032.5 4.5 N 6.0 0.0 0.0
07:01 10.2 8.6 90 1032.5 4.5 N 6.0 0.0 0.0
07:02 10.3 8.7 90 1032.5 6.0 N 6.0 0.0 0.0
07:03 10.3 8.7 90 1032.4 5.4 E 6.0 0.0 0.0
07:04 10.3 8.7 90 1032.5 4.5 N 6.0 0.0 0.0
07:05 10.3 8.7 90 1032.5 4.5 N 6.0 0.0 0.0
07:06 10.3 8.7 90 1032.4 5.4 W 6.9 0.0 0.0
07:07 10.4 8.8 90 1032.7 3.8 N 6.9 0.0 0.0
07:08 10.4 8.8 90 1032.5 6.9 NE 6.9 0.0 0.0
07:09 10.4 8.8 90 1032.5 6.9 NE 6.9 0.0 0.0
07:11 10.5 8.9 90 1032.5 6.0 E 6.9 0.0 0.0
07:12 10.5 8.9 90 1032.7 7.6 NE 7.6 0.0 0.0
07:13 10.5 8.9 90 1032.4 6.9 N 7.6 0.0 0.0
07:14 10.5 8.9 90 1032.5 4.5 NE 7.6 0.0 0.0
07:16 10.6 9.0 90 1032.6 5.4 NE 7.6 0.0 0.0
07:17 10.6 9.0 90 1032.4 4.5 N 7.6 0.0 0.0
07:18 10.6 9.0 90 1032.5 9.8 NE 9.8 0.0 0.0
07:19 10.7 9.1 90 1032.5 6.0 N 9.8 0.0 0.0
07:20 10.7 9.1 90 1032.4 3.1 S 9.8 0.0 0.0
07:21 10.7 9.1 90 1032.6 5.4 NE 9.8 0.0 0.0
07:22 10.7 9.1 90 1032.6 4.5 NNE 9.8 0.0 0.0
07:23 10.8 9.2 90 1032.5 7.6 NE 9.8 0.0 0.0
07:24 10.7 9.1 90 1032.6 9.8 ENE 9.8 0.0 0.0
07:25 10.8 9.2 90 1032.6 5.4 NE 9.8 0.0 0.0
07:26 10.8 9.2 90 1032.6 6.9 NE 9.8 0.0 0.0
07:27 10.8 9.2 90 1032.5 7.6 NE 9.8 0.0 0.0
07:28 10.9 9.3 90 1032.5 6.9 N 9.8 0.0 0.0
07:29 10.9 9.3 90 1032.6 7.6 NW 9.8 0.0 0.0
07:31 10.9 9.3 90 1032.5 9.2 N 9.8 0.0 0.0
07:32 10.9 9.3 90 1032.6 5.4 N 9.8 0.0 0.0
07:33 11.0 9.4 90 1032.6 5.4 NE 9.8 0.0 0.0
07:34 11.0 9.4 90 1032.5 9.2 N 9.8 0.0 0.0
07:35 11.0 9.4 90 1032.4 9.2 NE 9.8 0.0 0.0
07:36 11.0 9.4 90 1032.6 10.7 NE 10.7 0.0 0.0
07:37 11.1 9.5 90 1032.5 4.5 NE 10.7 0.0 0.0
07:38 11.1 9.4 89 1032.7 6.9 N 10.7 0.0 0.0
07:39 11.1 9.4 89 1032.7 6.9 N 10.7 0.0 0.0
07:40 11.1 9.4 89 1032.5 6.0 N 10.7 0.0 0.0
07:41 11.2 9.5 89 1032.5 8.3 NE 10.7 0.0 0.0
07:42 11.2 9.5 89 1032.4 7.6 NE 10.7 0.0 0.0
07:43 11.2 9.5 89 1032.5 5.4 N 10.7 0.0 0.0
07:44 11.2 9.5 89 1032.7 9.2 N 10.7 0.0 0.0
07:45 11.3 9.6 89 1032.5 6.9 NE 10.7 0.0 0.0
07:46 11.3 9.6 89 1032.5 9.2 NE 9.2 0.0 0.0
07:47 11.3 9.6 89 1032.5 8.3 NW 9.2 0.0 0.0
07:48 11.3 9.6 89 1032.6 9.8 N 9.8 0.0 0.0
07:49 11.4 9.7 89 1032.6 4.5 N 9.8 0.0 0.0
07:50 11.4 9.7 89 1032.5 7.6 NW 9.8 0.0 0.0
07:51 11.4 9.7 89 1032.6 6.0 N 9.8 0.0 0.0
07:52 11.4 9.7 89 1032.6 6.9 E 9.8 0.0 0.0
07:53 11.5 9.8 89 1032.6 3.8 E 9.8 0.0 0.0
07:54 11.5 9.8 89 1032.8 4.5 N 9.8 0.0 0.0
07:55 11.4 9.7 89 1032.5 4.5 N 9.8 0.0 0.0
07:56 11.5 9.8 89 1032.6 8.3 NE 9.8 0.0 0.0
07:57 11.5 9.8 89 1032.6 6.0 NE 9.8 0.0 0.0
07:58 11.6 9.7 88 1032.5 6.0 ENE 9.8 0.0 0.0
08:00 11.6 9.7 88 1032.5 6.9 NE 8.3 0.0 0.0
08:01 11.6 9.7 88 1032.5 9.8 NE 9.8 0.0 0.0
08:02 11.7 9.8 88 1032.4 9.2 N 10.7 0.0 0.0
08:03 11.7 9.8 88 1032.6 8.3 WNW 10.7 0.0 0.0
08:04 11.7 9.8 88 1032.5 6.0 N 10.7 0.0 0.0
08:05 11.7 9.8 88 1032.5 4.5 NE 10.7 0.0 0.0
08:06 11.8 9.9 88 1032.4 7.6 SW 10.7 0.0 0.0
08:07 11.8 9.9 88 1032.4 7.6 SW 10.7 0.0 0.0
08:08 11.8 9.9 88 1032.5 6.0 NE 10.7 0.0 0.0
08:09 11.8 9.9 88 1032.5 8.3 N 10.7 0.0 0.0
08:10 11.8 9.9 88 1032.5 7.6 NE 10.7 0.0 0.0
08:11 11.8 9.7 87 1032.4 6.0 NE 10.7 0.0 0.0
08:12 11.8 9.7 87 1032.4 9.8 N 10.7 0.0 0.0
08:14 11.9 9.8 87 1032.6 6.0 NE 9.8 0.0 0.0
08:15 12.0 9.9 87 1032.6 5.4 N 9.8 0.0 0.0
08:16 12.0 9.9 87 1032.6 3.8 N 9.8 0.0 0.0
08:17 12.0 9.9 87 1032.6 6.9 NE 9.8 0.0 0.0
08:18 12.0 9.9 87 1032.7 5.4 N 9.8 0.0 0.0
08:19 12.0 9.9 87 1032.6 9.8 N 9.8 0.0 0.0
08:20 12.1 10.0 87 1032.6 6.0 N 9.8 0.0 0.0
08:21 12.1 9.8 86 1032.6 8.3 NW 9.8 0.0 0.0
08:22 12.1 10.0 87 1032.5 8.3 NE 9.8 0.0 0.0
08:23 12.1 9.8 86 1032.5 8.3 N 9.8 0.0 0.0
08:24 12.1 9.8 86 1032.5 4.5 NE 9.8 0.0 0.0
08:25 12.2 9.9 86 1032.6 6.9 E 9.8 0.0 0.0
08:26 12.2 9.9 86 1032.6 5.4 N 9.8 0.0 0.0
08:27 12.2 9.9 86 1032.5 9.2 NW 9.8 0.0 0.0
08:28 12.2 9.9 86 1032.4 6.9 N 9.8 0.0 0.0
08:29 12.3 10.0 86 1032.5 5.4 N 9.8 0.0 0.0
08:31 12.3 10.0 86 1032.5 7.6 ENE 9.2 0.0 0.0
08:33 12.4 10.0 85 1032.5 5.4 NE 9.2 0.0 0.0
08:34 12.4 10.0 85 1032.4 6.0 NE 9.2 0.0 0.0
08:35 12.4 10.0 85 1032.6 5.4 NW 9.2 0.0 0.0
08:36 12.5 10.1 85 1032.5 6.9 S 9.2 0.0 0.0
08:37 12.5 10.1 85 1032.6 6.0 ENE 9.2 0.0 0.0
08:38 12.5 10.1 85 1032.5 6.0 NW 9.2 0.0 0.0
08:39 12.6 10.1 85 1032.5 5.4 NE 9.2 0.0 0.0
08:40 12.6 10.1 85 1032.4 6.0 N 9.2 0.0 0.0
08:41 12.6 10.1 85 1032.5 6.9 E 9.2 0.0 0.0
08:42 12.6 10.1 85 1032.5 13.0 WNW 13.0 0.0 0.0
08:43 12.6 10.1 85 1032.6 11.4 N 13.0 0.0 0.0
08:44 12.6 10.0 84 1032.5 8.3 NE 13.0 0.0 0.0
08:45 12.7 10.1 84 1032.4 9.8 N 13.0 0.0 0.0
08:46 12.7 10.1 84 1032.6 9.2 N 13.0 0.0 0.0
08:47 12.7 10.1 84 1032.7 8.3 NW 13.0 0.0 0.0
08:48 12.7 10.1 84 1032.4 9.8 N 13.0 0.0 0.0
08:49 12.8 10.0 83 1032.5 6.9 NE 13.0 0.0 0.0
08:50 12.8 10.0 83 1032.6 5.4 NE 13.0 0.0 0.0
08:51 12.8 10.0 83 1032.4 8.3 SE 13.0 0.0 0.0
08:52 12.8 10.0 83 1032.5 9.8 E 11.4 0.0 0.0
08:53 12.8 10.0 83 1032.6 5.4 N 9.8 0.0 0.0
08:54 12.9 10.1 83 1032.4 6.0 SE 9.8 0.0 0.0
08:55 12.9 10.1 83 1032.4 6.0 SE 9.8 0.0 0.0
08:56 12.9 10.1 83 1032.6 5.4 N 9.8 0.0 0.0
08:57 13.0 10.0 82 1032.6 9.2 NE 9.8 0.0 0.0
08:58 13.0 10.0 82 1032.6 5.4 SE 9.8 0.0 0.0
08:59 13.0 10.0 82 1032.6 7.6 N 9.8 0.0 0.0
09:00 13.0 10.0 82 1032.5 9.2 E 9.8 0.0 0.0
09:01 13.1 10.1 82 1032.6 6.9 NNE 9.8 0.0 0.0
09:02 13.1 10.1 82 1032.6 7.6 NE 9.8 0.0 0.0
09:04 13.1 10.1 82 1032.4 4.5 NW 9.2 0.0 0.0
09:05 13.2 10.0 81 1032.5 3.8 WNW 9.2 0.0 0.0
09:06 13.3 10.1 81 1032.7 3.8 N 9.2 0.0 0.0
09:07 13.3 10.1 81 1032.7 6.0 NE 9.2 0.0 0.0
09:08 13.3 10.1 81 1032.6 5.4 NE 9.2 0.0 0.0
09:09 13.4 10.2 81 1032.6 4.5 N 9.2 0.0 0.0
09:10 13.4 10.2 81 1032.7 4.5 NW 9.2 0.0 0.0
09:11 13.5 10.3 81 1032.7 4.5 NE 9.2 0.0 0.0
09:12 13.5 10.3 81 1032.7 9.2 NE 9.2 0.0 0.0
09:13 13.6 10.2 80 1032.7 5.4 NE 9.2 0.0 0.0
09:14 13.6 10.2 80 1032.8 6.0 N 9.2 0.0 0.0
09:15 13.6 10.2 80 1032.7 6.9 NE 9.2 0.0 0.0
09:16 13.7 10.3 80 1032.6 5.4 N 9.2 0.0 0.0
09:17 13.8 10.4 80 1032.7 6.9 NE 9.2 0.0 0.0
09:18 13.8 10.4 80 1032.7 6.0 N 9.2 0.0 0.0
09:19 13.8 10.2 79 1032.8 9.8 NE 9.8 0.0 0.0
09:20 13.9 10.3 79 1032.8 5.4 N 9.8 0.0 0.0
09:21 14.0 10.4 79 1032.8 7.6 N 9.8 0.0 0.0
09:22 14.1 10.5 79 1032.7 7.6 N 9.8 0.0 0.0
09:23 14.1 10.5 79 1032.7 5.4 NE 9.8 0.0 0.0
09:24 14.1 10.5 79 1032.9 4.5 N 9.8 0.0 0.0
09:25 14.2 10.6 79 1032.8 8.3 N 9.8 0.0 0.0
09:26 14.3 10.5 78 1032.8 5.4 NE 9.8 0.0 0.0
09:27 14.3 10.5 78 1032.8 5.4 N 9.8 0.0 0.0
09:28 14.3 10.5 78 1032.7 7.6 NE 9.8 0.0 0.0
09:29 14.4 10.6 78 1032.8 6.0 NW 8.3 0.0 0.0
09:30 14.4 10.6 78 1032.8 5.4 N 8.3 0.0 0.0
09:31 14.4 10.6 78 1032.8 6.0 N 8.3 0.0 0.0
09:32 14.5 10.5 77 1032.8 9.2 WNW 9.2 0.0 0.0
09:33 14.6 10.6 77 1032.7 7.6 N 9.2 0.0 0.0
09:34 14.6 10.6 77 1032.8 6.0 NE 9.2 0.0 0.0
09:35 14.6 10.4 76 1032.7 5.4 S 9.2 0.0 0.0
09:36 14.7 10.5 76 1032.8 9.2 N 9.2 0.0 0.0
09:37 14.7 10.5 76 1032.7 9.2 NE 9.2 0.0 0.0
09:38 14.7 10.5 76 1032.9 4.5 NW 9.2 0.0 0.0
09:39 14.7 10.5 76 1032.8 4.5 NW 9.2 0.0 0.0
09:40 14.8 10.6 76 1032.7 9.2 N 9.2 0.0 0.0
09:41 14.7 10.5 76 1032.7 6.9 N 9.2 0.0 0.0
09:42 14.8 10.6 76 1032.7 5.4 NW 9.2 0.0 0.0
09:43 14.8 10.4 75 1032.7 4.5 N 9.2 0.0 0.0
09:44 14.8 10.4 75 1032.7 3.1 N 9.2 0.0 0.0
09:45 14.9 10.5 75 1032.6 5.4 E 9.2 0.0 0.0
09:46 14.9 10.5 75 1032.7 9.8 SW 9.8 0.0 0.0
09:47 14.9 10.5 75 1032.7 6.0 N 9.8 0.0 0.0
09:48 15.0 10.6 75 1032.7 3.8 N 9.8 0.0 0.0
09:49 15.0 10.6 75 1032.8 3.8 NW 9.8 0.0 0.0
09:50 15.0 10.6 75 1032.8 6.9 N 9.8 0.0 0.0
09:51 15.0 10.4 74 1032.7 3.1 N 9.8 0.0 0.0
09:52 15.1 10.5 74 1032.6 4.5 NE 9.8 0.0 0.0
09:53 15.1 10.5 74 1032.7 6.0 NW 9.8 0.0 0.0
09:54 15.1 10.5 74 1032.7 6.0 NW 9.8 0.0 0.0
09:55 15.1 10.3 73 1032.6 6.0 N 9.8 0.0 0.0
09:56 15.2 10.4 73 1032.7 6.0 E 6.9 0.0 0.0
09:57 15.2 10.4 73 1032.7 3.8 N 6.9 0.0 0.0
09:58 15.2 10.4 73 1032.8 3.8 SW 6.9 0.0 0.0
09:59 15.3 10.5 73 1032.5 6.9 N 6.9 0.0 0.0
10:00 15.4 10.4 72 1032.7 5.4 NW 6.9 0.0 0.0
10:01 15.4 10.4 72 1032.5 5.4 NW 6.9 0.0 0.0
10:02 15.4 10.2 71 1032.6 6.0 NW 6.9 0.0 0.0
10:03 15.5 10.3 71 1032.7 6.0 WNW 6.9 0.0 0.0
10:04 15.5 10.1 70 1032.5 10.7 N 10.7 0.0 0.0
10:05 15.5 10.1 70 1032.7 6.0 N 10.7 0.0 0.0
10:06 15.6 10.2 70 1032.7 6.0 ENE 10.7 0.0 0.0
10:07 15.6 9.9 69 1032.6 6.0 NE 10.7 0.0 0.0
10:08 15.7 10.0 69 1032.8 5.4 SW 10.7 0.0 0.0
10:09 15.7 10.0 69 1032.6 6.9 N 10.7 0.0 0.0
10:10 15.7 9.8 68 1032.7 6.9 NE 10.7 0.0 0.0
10:11 15.7 9.8 68 1032.7 6.9 NE 10.7 0.0 0.0
10:12 15.8 9.9 68 1032.8 6.0 N 10.7 0.0 0.0
10:13 15.8 9.9 68 1032.7 8.3 N 10.7 0.0 0.0
10:14 15.8 9.9 68 1032.7 3.8 NW 10.7 0.0 0.0
10:15 15.8 9.9 68 1032.7 6.9 NE 10.7 0.0 0.0
10:16 15.9 9.8 67 1032.7 9.8 N 10.7 0.0 0.0
10:17 15.9 9.8 67 1032.8 5.4 NE 10.7 0.0 0.0
10:18 15.9 9.8 67 1032.7 3.8 NW 10.7 0.0 0.0
10:19 16.0 9.9 67 1032.6 5.4 SW 10.7 0.0 0.0
10:20 16.0 9.9 67 1032.6 3.1 NW 10.7 0.0 0.0
10:21 16.0 9.9 67 1032.6 5.4 N 10.7 0.0 0.0
10:22 16.2 10.3 68 1032.7 7.6 NE 9.8 0.0 0.0
10:23 16.2 10.3 68 1032.6 3.8 NE 9.8 0.0 0.0
10:24 16.3 10.4 68 1032.8 3.8 N 9.8 0.0 0.0
10:25 16.4 10.3 67 1032.6 2.2 E 9.8 0.0 0.0
10:26 16.4 10.5 68 1032.7 11.4 SW 11.4 0.0 0.0
10:27 16.5 10.4 67 1032.6 8.3 NW 11.4 0.0 0.0
10:28 16.5 10.1 66 1032.7 6.9 NW 11.4 0.0 0.0
10:29 16.5 10.1 66 1032.5 4.5 NW 11.4 0.0 0.0
10:30 16.5 10.1 66 1032.6 8.3 NE 11.4 0.0 0.0
10:31 16.5 9.9 65 1032.8 7.6 E 11.4 0.0 0.0
10:32 16.6 10.2 66 1032.7 3.8 NE 11.4 0.0 0.0
10:33 16.6 9.8 64 1032.6 3.1 NE 11.4 0.0 0.0
10:34 16.6 9.5 63 1032.7 5.4 SW 11.4 0.0 0.0
10:35 16.7 9.9 64 1032.7 6.9 SE 11.4 0.0 0.0
10:36 16.7 9.9 64 1032.7 6.9 W 8.3 0.0 0.0
10:37 16.7 9.6 63 1032.7 3.8 SW 8.3 0.0 0.0
10:38 16.7 9.4 62 1032.8 6.9 NE 8.3 0.0 0.0
10:39 16.7 9.4 62 1032.8 6.9 NE 8.3 0.0 0.0
10:40 16.7 9.4 62 1032.8 3.8 NE 8.3 0.0 0.0
10:41 16.7 9.4 62 1032.7 7.6 N 8.3 0.0 0.0
10:42 16.7 9.4 62 1032.7 3.8 E 7.6 0.0 0.0
10:43 16.7 9.6 63 1032.7 5.4 W 7.6 0.0 0.0
10:44 16.8 10.2 65 1032.8 8.3 N 8.3 0.0 0.0
10:45 16.9 9.8 63 1032.7 5.4 NW 8.3 0.0 0.0
10:46 17.0 9.7 62 1032.7 5.4 WNW 8.3 0.0 0.0
10:47 17.1 9.8 62 1032.8 3.1 N 8.3 0.0 0.0
10:48 17.1 9.8 62 1032.7 3.1 NE 8.3 0.0 0.0
10:49 17.1 9.8 62 1032.7 6.0 NE 8.3 0.0 0.0
10:50 17.3 10.2 63 1032.6 3.8 NE 8.3 0.0 0.0
10:51 17.3 10.0 62 1032.6 5.4 NNE 8.3 0.0 0.0
10:52 17.4 9.8 61 1032.7 6.0 NW 8.3 0.0 0.0
10:53 17.3 9.7 61 1032.7 6.9 NW 8.3 0.0 0.0
10:54 17.3 9.5 60 1032.7 5.4 N 8.3 0.0 0.0
10:55 17.4 9.6 60 1032.7 5.4 N 6.9 0.0 0.0
10:56 17.4 9.6 60 1032.6 4.5 N 6.9 0.0 0.0
10:57 17.4 9.8 61 1032.7 6.0 NE 6.9 0.0 0.0
10:58 17.4 9.6 60 1032.7 8.3 NW 8.3 0.0 0.0
10:59 17.4 9.1 58 1032.6 9.2 N 9.2 0.0 0.0
11:00 17.4 9.1 58 1032.7 6.9 N 9.2 0.0 0.0
11:01 17.4 9.1 58 1032.7 6.9 N 9.2 0.0 0.0
11:02 17.5 9.7 60 1032.6 4.5 N 9.2 0.0 0.0
11:03 17.5 9.7 60 1032.7 6.0 NNE 9.2 0.0 0.0
11:04 17.6 10.0 61 1032.7 6.0 S 9.2 0.0 0.0
11:05 17.7 9.6 59 1032.8 5.4 E 9.2 0.0 0.0
11:06 17.8 9.7 59 1032.6 6.0 N 9.2 0.0 0.0
11:07 17.8 9.4 58 1032.6 3.8 NE 9.2 0.0 0.0
11:08 17.9 9.5 58 1032.6 6.0 WNW 9.2 0.0 0.0
11:09 17.9 9.5 58 1032.7 7.6 N 7.6 0.0 0.0
11:10 17.9 9.3 57 1032.7 6.0 NE 7.6 0.0 0.0
11:11 17.9 9.3 57 1032.7 6.0 NE 7.6 0.0 0.0
11:12 18.0 9.4 57 1032.5 4.5 NE 7.6 0.0 0.0
11:13 18.1 9.7 58 1032.5 6.9 NE 7.6 0.0 0.0
11:14 18.1 9.5 57 1032.6 4.5 WNW 7.6 0.0 0.0
11:15 18.2 9.3 56 1032.4 5.4 W 7.6 0.0 0.0
11:16 18.3 9.4 56 1032.5 7.6 WNW 9.2 0.0 0.0
11:17 18.3 9.4 56 1032.5 6.9 NE 9.2 0.0 0.0
11:18 18.3 9.1 55 1032.6 7.6 NW 9.2 0.0 0.0
11:19 18.2 9.0 55 1032.7 6.0 E 9.2 0.0 0.0
11:20 18.2 9.6 57 1032.7 3.1 NW 9.2 0.0 0.0
11:21 18.2 9.0 55 1032.5 9.8 N 9.8 0.0 0.0
11:22 18.3 9.6 57 1032.5 6.9 WNW 9.8 0.0 0.0
11:23 18.3 9.1 55 1032.5 9.2 NE 9.8 0.0 0.0
11:24 18.3 9.1 55 1032.5 9.2 N 9.8 0.0 0.0
11:25 18.3 8.8 54 1032.4 6.0 ENE 9.8 0.0 0.0
11:26 18.4 8.9 54 1032.4 6.9 NE 9.8 0.0 0.0
11:27 18.4 8.7 53 1032.3 8.3 N 9.8 0.0 0.0
11:28 18.4 8.9 54 1032.3 6.0 N 9.8 0.0 0.0
11:29 18.4 8.7 53 1032.5 7.6 NNW 9.8 0.0 0.0
11:30 18.4 8.7 53 1032.6 5.4 NW 9.8 0.0 0.0
11:31 18.4 8.7 53 1032.6 7.6 NW 9.8 0.0 0.0
11:32 18.4 8.7 53 1032.5 8.3 E 9.8 0.0 0.0
11:33 18.4 8.9 54 1032.6 5.4 NE 9.8 0.0 0.0
11:34 18.5 9.0 54 1032.5 6.9 NW 9.8 0.0 0.0
11:35 18.5 9.3 55 1032.5 9.2 N 9.8 0.0 0.0
11:36 18.6 9.1 54 1032.5 10.7 SE 10.7 0.0 0.0
11:37 18.6 9.4 55 1032.5 10.7 WNW 10.7 0.0 0.0
11:38 18.7 9.2 54 1032.6 5.4 SW 10.7 0.0 0.0
11:39 18.7 9.2 54 1032.4 5.4 WNW 10.7 0.0 0.0
11:40 18.8 9.3 54 1032.4 8.3 NE 10.7 0.0 0.0
11:41 18.8 9.3 54 1032.4 6.9 N 10.7 0.0 0.0
11:42 18.8 9.3 54 1032.5 4.5 N 10.7 0.0 0.0
11:43 18.8 9.0 53 1032.5 7.6 N 10.7 0.0 0.0
11:44 18.8 9.0 53 1032.6 5.4 NW 10.7 0.0 0.0
11:45 18.9 9.4 54 1032.4 5.4 NE 10.7 0.0 0.0
11:46 18.9 9.1 53 1032.5 8.3 NE 10.7 0.0 0.0
11:47 18.9 9.1 53 1032.4 7.6 E 10.7 0.0 0.0
11:48 19.0 9.2 53 1032.4 6.0 NW 8.3 0.0 0.0
11:49 19.1 9.0 52 1032.6 5.4 N 8.3 0.0 0.0
11:50 19.2 9.4 53 1032.5 5.4 N 8.3 0.0 0.0
11:51 19.2 9.4 53 1032.4 6.9 NW 8.3 0.0 0.0
11:52 19.3 9.5 53 1032.4 7.6 N 8.3 0.0 0.0
11:53 19.2 9.4 53 1032.4 5.4 NE 8.3 0.0 0.0
11:54 19.2 9.4 53 1032.6 9.8 N 9.8 0.0 0.0
11:55 19.2 9.4 53 1032.6 9.8 N 9.8 0.0 0.0
11:56 19.2 10.0 55 1032.5 6.9 NE 9.8 0.0 0.0
11:57 19.3 10.0 55 1032.4 9.8 N 9.8 0.0 0.0
11:58 19.3 10.3 56 1032.5 4.5 W 9.8 0.0 0.0
11:59 19.3 10.3 56 1032.5 3.1 N 9.8 0.0 0.0
12:00 19.4 10.4 56 1032.5 8.3 W 9.8 0.0 0.0
12:01 19.4 10.4 56 1032.4 9.2 S 9.8 0.0 0.0
12:02 19.4 10.1 55 1032.3 6.0 N 9.8 0.0 0.0
12:03 19.4 9.9 54 1032.4 5.4 N 9.8 0.0 0.0
12:04 19.3 10.0 55 1032.3 8.3 W 9.8 0.0 0.0
12:05 19.3 10.0 55 1032.4 8.3 NE 9.8 0.0 0.0
12:06 19.2 10.0 55 1032.4 9.8 N 9.8 0.0 0.0
12:07 19.2 10.2 56 1032.2 9.8 N 9.8 0.0 0.0
12:08 19.2 10.2 56 1032.3 6.9 NE 9.8 0.0 0.0
12:09 19.3 10.3 56 1032.3 8.3 N 9.8 0.0 0.0
12:10 19.3 10.3 56 1032.3 9.8 N 9.8 0.0 0.0
12:11 19.3 10.3 56 1032.3 9.8 N 9.8 0.0 0.0
12:12 19.3 10.3 56 1032.3 9.2 W 9.8 0.0 0.0
12:13 19.3 10.3 56 1032.3 8.3 NE 9.8 0.0 0.0
12:14 19.3 10.0 55 1032.4 7.6 NW 9.8 0.0 0.0
12:15 19.3 10.6 57 1032.3 4.5 W 9.8 0.0 0.0
12:16 19.4 10.7 57 1032.4 6.0 NW 9.8 0.0 0.0
12:17 19.5 10.8 57 1032.3 4.5 N 9.8 0.0 0.0
12:18 19.6 10.6 56 1032.3 6.9 NE 9.8 0.0 0.0
12:19 19.6 10.3 55 1032.3 8.3 NW 9.8 0.0 0.0
12:20 19.6 10.3 55 1032.4 7.6 N 9.8 0.0 0.0
12:21 19.6 10.0 54 1032.3 9.2 NW 9.8 0.0 0.0
12:22 19.6 10.0 54 1032.4 4.5 NE 9.8 0.0 0.0
12:23 19.6 10.0 54 1032.4 4.5 NE 9.8 0.0 0.0
12:24 19.5 10.2 55 1032.4 7.6 NW 9.8 0.0 0.0
12:25 19.5 10.2 55 1032.5 9.8 NW 9.8 0.0 0.0
12:26 19.5 10.2 55 1032.5 9.8 NW 9.8 0.0 0.0
12:27 19.5 10.2 55 1032.4 5.4 N 9.8 0.0 0.0
12:28 19.5 10.5 56 1032.5 5.4 N 9.8 0.0 0.0
12:29 19.5 10.2 55 1032.4 9.2 NW 9.8 0.0 0.0
12:30 19.4 9.9 54 1032.4 6.0 NW 9.8 0.0 0.0
12:31 19.4 10.1 55 1032.4 6.9 N 9.8 0.0 0.0
12:32 19.4 10.4 56 1032.4 9.2 WNW 9.8 0.0 0.0
12:33 19.5 10.2 55 1032.4 8.3 WSW 9.8 0.0 0.0
12:34 19.5 10.2 55 1032.3 8.3 N 9.8 0.0 0.0
12:35 19.5 10.5 56 1032.4 8.3 NW 9.8 0.0 0.0
12:36 19.5 10.5 56 1032.4 9.2 SW 9.8 0.0 0.0
12:37 19.4 10.4 56 1032.3 9.8 N 9.8 0.0 0.0
12:38 19.4 10.1 55 1032.4 9.2 N 9.8 0.0 0.0
12:39 19.4 10.7 57 1032.4 3.8 NE 9.8 0.0 0.0
12:40 19.4 10.4 56 1032.4 7.6 NNE 9.8 0.0 0.0
12:41 19.4 10.4 56 1032.5 6.9 W 9.8 0.0 0.0
12:42 19.4 10.7 57 1032.3 6.0 NW 9.8 0.0 0.0
12:43 19.4 10.7 57 1032.3 6.0 NW 9.8 0.0 0.0
12:44 19.4 10.7 57 1032.3 6.0 NW 9.8 0.0 0.0
12:45 19.5 10.8 57 1032.3 7.6 WSW 9.8 0.0 0.0
12:46 19.5 10.5 56 1032.4 5.4 S 9.8 0.0 0.0
12:47 19.5 10.5 56 1032.4 9.8 N 9.8 0.0 0.0
12:48 19.4 10.4 56 1032.4 9.2 NW 11.4 0.0 0.0
12:49 19.3 10.0 55 1032.3 8.3 NW 11.4 0.0 0.0
12:50 19.2 10.2 56 1032.3 5.4 N 11.4 0.0 0.0
12:51 19.1 10.4 57 1032.3 8.3 N 11.4 0.0 0.0
12:52 19.2 10.5 57 1032.3 8.3 NE 11.4 0.0 0.0
12:53 19.3 10.3 56 1032.4 8.3 SW 11.4 0.0 0.0
12:54 19.2 10.2 56 1032.3 6.9 NW 11.4 0.0 0.0
12:55 19.3 10.3 56 1032.3 8.3 NW 11.4 0.0 0.0
12:56 19.4 10.7 57 1032.5 6.0 WNW 11.4 0.0 0.0
12:57 19.5 10.5 56 1032.4 6.0 N 11.4 0.0 0.0
12:58 19.5 10.2 55 1032.5 9.2 N 9.2 0.0 0.0
12:59 19.5 10.2 55 1032.5 9.2 N 9.2 0.0 0.0
13:00 19.5 10.2 55 1032.3 3.8 NE 9.2 0.0 0.0
13:01 19.5 10.2 55 1032.4 3.8 NE 9.2 0.0 0.0
13:02 19.6 10.6 56 1032.4 3.8 W 9.2 0.0 0.0
13:03 19.7 11.0 57 1032.2 3.8 S 9.2 0.0 0.0
13:04 19.8 11.0 57 1032.3 6.0 NE 9.2 0.0 0.0
13:05 20.0 11.0 56 1032.3 6.9 NE 9.2 0.0 0.0
13:06 20.0 10.7 55 1032.4 7.6 NE 9.2 0.0 0.0
13:07 20.0 11.0 56 1032.4 6.0 WNW 9.2 0.0 0.0
13:08 20.0 11.0 56 1032.3 6.0 WNW 9.2 0.0 0.0
13:09 20.0 11.0 56 1032.3 5.4 NE 7.6 0.0 0.0
13:10 19.9 10.6 55 1032.3 8.3 WSW 8.3 0.0 0.0
13:11 19.9 10.6 55 1032.3 6.9 N 8.3 0.0 0.0
13:13 19.7 11.0 57 1032.3 5.4 NW 10.7 0.0 0.0
13:14 19.7 11.0 57 1032.3 3.1 N 10.7 0.0 0.0
13:15 19.8 11.0 57 1032.4 4.5 NW 10.7 0.0 0.0
13:16 19.8 10.8 56 1032.4 10.7 N 10.7 0.0 0.0
13:17 19.8 10.8 56 1032.4 10.7 NW 10.7 0.0 0.0
13:18 19.8 11.0 57 1032.3 6.0 NW 10.7 0.0 0.0
13:19 19.8 11.0 57 1032.3 6.0 NW 10.7 0.0 0.0
13:20 19.8 11.0 57 1032.4 8.3 NW 11.4 0.0 0.0
13:21 19.7 11.0 57 1032.4 7.6 SW 11.4 0.0 0.0
13:22 19.7 11.0 57 1032.3 6.0 W 11.4 0.0 0.0
13:23 19.7 11.0 57 1032.4 6.0 NW 11.4 0.0 0.0
13:24 19.7 11.0 57 1032.3 6.9 NE 11.4 0.0 0.0
13:25 19.7 11.0 57 1032.3 6.0 NW 11.4 0.0 0.0
13:26 19.7 11.0 57 1032.2 8.3 SE 11.4 0.0 0.0
13:27 19.8 11.0 57 1032.3 6.9 WNW 11.4 0.0 0.0
13:28 19.8 11.0 57 1032.2 10.7 NW 11.4 0.0 0.0
13:29 19.8 10.8 56 1032.1 13.0 N 13.0 0.0 0.0
13:30 19.8 10.8 56 1032.2 7.6 N 13.0 0.0 0.0
13:31 19.8 10.8 56 1032.3 7.6 NW 13.0 0.0 0.0
13:32 19.8 10.8 56 1032.1 12.1 NW 13.0 0.0 0.0
13:33 19.8 11.0 57 1032.2 10.7 N 13.0 0.0 0.0
13:34 19.9 10.9 56 1032.1 13.0 E 13.0 0.0 0.0
13:35 19.9 11.1 57 1032.0 11.4 N 13.0 0.0 0.0
13:36 19.9 10.6 55 1032.0 9.2 N 13.0 0.0 0.0
13:37 19.9 10.9 56 1032.2 6.9 N 13.0 0.0 0.0
13:38 19.9 10.9 56 1032.2 6.9 N 13.0 0.0 0.0
13:39 20.0 11.0 56 1032.2 7.6 NW 13.0 0.0 0.0
13:40 19.9 10.9 56 1032.3 10.7 NW 13.0 0.0 0.0
13:41 19.9 10.9 56 1032.2 7.6 WNW 13.0 0.0 0.0
13:42 19.9 10.9 56 1032.3 6.9 N 13.0 0.0 0.0
13:43 19.9 10.6 55 1032.2 7.6 N 13.0 0.0 0.0
13:44 19.9 10.9 56 1032.3 6.9 NW 13.0 0.0 0.0
13:46 20.0 11.0 56 1032.1 11.4 NW 11.4 0.0 0.0
13:47 20.0 11.0 56 1032.2 5.4 NW 11.4 0.0 0.0
13:48 20.0 11.0 56 1032.1 9.8 NW 11.4 0.0 0.0
13:49 19.9 10.6 55 1032.3 7.6 N 11.4 0.0 0.0
13:50 19.9 10.9 56 1032.1 10.7 NW 11.4 0.0 0.0
13:51 19.9 11.1 57 1032.0 5.4 NW 11.4 0.0 0.0
13:52 19.9 11.1 57 1032.2 8.3 N 11.4 0.0 0.0
13:53 19.9 11.1 57 1032.1 7.6 SW 11.4 0.0 0.0
13:54 19.9 11.1 57 1032.2 6.9 NW 11.4 0.0 0.0
13:55 19.9 10.6 55 1031.9 4.5 N 11.4 0.0 0.0
13:56 19.9 10.6 55 1032.1 6.0 N 11.4 0.0 0.0
13:57 19.9 10.9 56 1032.0 5.4 W 10.7 0.0 0.0
13:58 20.0 10.7 55 1032.1 6.0 NW 10.7 0.0 0.0
13:59 19.9 10.6 55 1032.0 8.3 NW 10.7 0.0 0.0
14:00 19.9 10.6 55 1032.0 6.9 NW 10.7 0.0 0.0
14:01 19.9 10.6 55 1032.1 6.9 NW 8.3 0.0 0.0
14:03 19.8 10.8 56 1031.9 9.8 NE 9.8 0.0 0.0
14:04 19.9 10.9 56 1031.9 9.2 N 9.8 0.0 0.0
14:05 20.0 11.0 56 1032.0 9.8 NW 9.8 0.0 0.0
14:06 20.0 10.7 55 1031.9 12.1 N 12.1 0.0 0.0
14:07 20.0 10.4 54 1032.0 7.6 NE 12.1 0.0 0.0
14:08 20.0 10.4 54 1032.1 5.4 NW 12.1 0.0 0.0
14:09 20.0 10.4 54 1032.1 6.0 W 12.1 0.0 0.0
14:10 20.0 10.4 54 1032.0 7.6 NW 12.1 0.0 0.0
14:11 20.0 10.7 55 1032.2 6.0 E 12.1 0.0 0.0
14:12 20.0 11.0 56 1032.0 8.3 NW 12.1 0.0 0.0
14:13 20.0 11.2 57 1031.9 6.0 NW 12.1 0.0 0.0
14:14 20.0 11.0 56 1032.1 6.0 S 12.1 0.0 0.0
14:15 20.0 10.7 55 1031.9 9.2 NW 12.1 0.0 0.0
14:16 20.1 11.1 56 1031.9 3.8 SE 12.1 0.0 0.0
14:18 20.3 10.7 54 1032.0 7.6 NE 9.2 0.0 0.0
14:19 20.3 10.4 53 1032.1 6.9 NW 9.2 0.0 0.0
14:20 20.4 10.8 54 1032.1 6.9 N 9.2 0.0 0.0
14:21 20.4 10.8 54 1032.1 6.0 NW 9.2 0.0 0.0
14:22 20.4 11.1 55 1032.1 5.4 SW 9.2 0.0 0.0
14:23 20.4 11.1 55 1032.1 8.3 W 9.2 0.0 0.0
14:24 20.4 11.1 55 1031.9 9.8 N 9.8 0.0 0.0
14:25 20.5 10.9 54 1032.0 8.3 N 9.8 0.0 0.0
14:26 20.5 11.2 55 1031.9 5.4 W 9.8 0.0 0.0
14:27 20.6 11.3 55 1032.0 10.7 N 10.7 0.0 0.0
14:28 20.6 11.0 54 1032.1 6.9 NE 10.7 0.0 0.0
14:29 20.6 11.0 54 1032.0 6.9 NW 10.7 0.0 0.0
14:30 20.6 11.0 54 1032.1 6.9 N 10.7 0.0 0.0
14:31 20.6 11.0 54 1032.1 8.3 WNW 13.6 0.0 0.0
14:32 20.6 11.0 54 1032.0 6.0 WNW 13.6 0.0 0.0
14:33 20.5 10.9 54 1032.2 6.9 WNW 13.6 0.0 0.0
14:35 20.4 10.8 54 1032.1 9.8 W 13.6 0.0 0.0
14:36 20.4 11.1 55 1032.1 6.0 W 13.6 0.0 0.0
14:37 20.5 10.9 54 1032.2 10.7 SW 13.6 0.0 0.0
14:38 20.5 10.9 54 1032.1 7.6 NW 13.6 0.0 0.0
14:39 20.5 10.9 54 1032.0 9.2 NW 13.6 0.0 0.0
14:40 20.5 10.6 53 1032.2 6.9 NW 13.6 0.0 0.0
14:41 20.4 10.8 54 1031.9 7.6 NW 10.7 0.0 0.0
14:42 20.4 10.8 54 1032.1 8.3 N 10.7 0.0 0.0
14:43 20.4 11.1 55 1032.1 8.3 NE 10.7 0.0 0.0
14:44 20.4 10.8 54 1032.1 11.4 NW 11.4 0.0 0.0
14:45 20.4 10.5 53 1032.0 13.0 NE 13.0 0.0 0.0
14:46 20.3 10.4 53 1032.1 8.3 NW 13.0 0.0 0.0
14:47 20.3 10.7 54 1031.9 9.2 SW 13.0 0.0 0.0
14:48 20.3 10.7 54 1032.0 6.9 NW 13.0 0.0 0.0
14:49 20.3 10.7 54 1032.1 6.0 SE 13.0 0.0 0.0
14:50 20.4 10.5 53 1032.0 13.0 NW 13.0 0.0 0.0
14:52 20.3 10.7 54 1032.1 8.3 NE 13.0 0.0 0.0
14:53 20.3 10.7 54 1032.0 9.2 SW 13.0 0.0 0.0
14:54 20.3 10.7 54 1032.0 7.6 N 13.0 0.0 0.0
14:55 20.3 11.0 55 1031.8 4.5 E 13.0 0.0 0.0
14:56 20.4 10.8 54 1031.9 8.3 S 13.0 0.0 0.0
14:57 20.5 10.6 53 1031.9 9.2 ENE 13.0 0.0 0.0
14:58 20.5 10.9 54 1031.9 9.8 ENE 13.0 0.0 0.0
14:59 20.5 10.9 54 1031.9 4.5 NW 13.0 0.0 0.0
15:00 20.5 10.9 54 1031.8 4.5 NW 13.0 0.0 0.0
15:01 20.5 10.9 54 1031.8 4.5 NW 9.8 0.0 0.0
15:02 20.5 10.9 54 1031.9 9.8 NW 9.8 0.0 0.0
15:03 20.3 10.7 54 1031.7 9.2 NW 9.8 0.0 0.0
15:04 20.5 10.9 54 1031.8 7.6 N 9.8 0.0 0.0
15:05 20.6 10.7 53 1031.8 6.9 N 9.8 0.0 0.0
15:06 20.6 11.0 54 1031.9 7.6 WNW 9.8 0.0 0.0
15:07 20.6 10.4 52 1031.8 9.2 NNE 9.8 0.0 0.0
15:08 20.6 10.1 51 1031.8 8.3 S 9.8 0.0 0.0
15:09 20.5 10.3 52 1031.8 9.2 N 9.8 0.0 0.0
15:10 20.5 10.3 52 1031.8 11.4 W 11.4 0.0 0.0
15:11 20.4 10.5 53 1031.7 9.8 NW 11.4 0.0 0.0
15:12 20.4 10.5 53 1031.9 6.9 NW 11.4 0.0 0.0
15:14 20.3 10.4 53 1031.9 14.5 NW 14.5 0.0 0.0
15:15 20.3 10.7 54 1031.9 6.0 NW 14.5 0.0 0.0
15:16 20.3 10.7 54 1031.7 9.8 NE 14.5 0.0 0.0
15:17 20.4 10.5 53 1031.8 3.8 N 14.5 0.0 0.0
15:18 20.4 10.8 54 1031.6 6.0 NW 14.5 0.0 0.0
15:19 20.5 10.9 54 1031.8 9.2 NW 14.5 0.0 0.0
15:20 20.5 10.9 54 1031.6 7.6 NW 14.5 0.0 0.0
15:21 20.6 11.0 54 1031.7 4.5 SSW 14.5 0.0 0.0
15:22 20.6 11.0 54 1031.8 9.2 NNE 14.5 0.0 0.0
15:23 20.7 10.8 53 1031.7 7.6 N 14.5 0.0 0.0
15:24 20.7 10.8 53 1031.7 6.9 WNW 14.5 0.0 0.0
15:25 20.7 11.1 54 1031.7 8.3 NW 9.8 0.0 0.0
15:26 20.7 11.1 54 1031.8 7.6 N 9.8 0.0 0.0
15:27 20.8 10.9 53 1031.8 7.6 W 9.2 0.0 0.0
15:28 20.7 10.5 52 1031.7 10.7 N 10.7 0.0 0.0
15:29 20.6 10.7 53 1031.6 7.6 NW 10.7 0.0 0.0
15:30 20.6 10.7 53 1031.7 6.0 W 10.7 0.0 0.0
15:31 20.6 10.4 52 1031.7 7.6 NNE 10.7 0.0 0.0
15:32 20.5 10.0 51 1031.7 13.6 NW 13.6 0.0 0.0
15:33 20.4 9.9 51 1031.6 10.7 NW 13.6 0.0 0.0
15:34 20.3 9.8 51 1031.7 6.9 NW 13.6 0.0 0.0
15:35 20.3 10.1 52 1031.7 6.9 N 13.6 0.0 0.0
15:36 20.4 10.5 53 1031.6 6.0 NW 13.6 0.0 0.0
15:37 20.4 10.8 54 1031.6 7.6 N 13.6 0.0 0.0
15:38 20.5 10.6 53 1031.7 10.7 NW 13.6 0.0 0.0
15:39 20.5 10.3 52 1031.5 6.0 N 13.6 0.0 0.0
15:40 20.5 10.0 51 1031.6 10.7 W 13.6 0.0 0.0
15:41 20.5 10.0 51 1031.6 10.7 WNW 13.6 0.0 0.0
15:42 20.5 10.0 51 1031.6 12.1 NW 13.6 0.0 0.0
15:43 20.4 10.5 53 1031.7 7.6 WNW 13.6 0.0 0.0
15:44 20.3 10.4 53 1031.8 7.6 NW 12.1 0.0 0.0
15:46 20.3 10.4 53 1031.8 8.3 N 12.1 0.0 0.0
15:47 20.4 10.5 53 1031.8 6.9 WNW 12.1 0.0 0.0
15:48 20.4 10.5 53 1031.7 5.4 NW 12.1 0.0 0.0
15:49 20.4 10.2 52 1031.6 9.2 SW 12.1 0.0 0.0
15:50 20.4 10.2 52 1031.7 4.5 N 12.1 0.0 0.0
15:51 20.5 10.0 51 1031.6 7.6 N 12.1 0.0 0.0
15:52 20.5 10.0 51 1031.6 7.6 N 12.1 0.0 0.0
15:53 20.4 9.9 51 1031.5 9.8 NW 10.7 0.0 0.0
15:54 20.4 10.2 52 1031.7 6.9 N 10.7 0.0 0.0
15:55 20.4 9.9 51 1031.5 6.0 N 10.7 0.0 0.0
15:56 20.4 9.9 51 1031.5 9.8 N 10.7 0.0 0.0
15:57 20.2 10.3 53 1031.6 6.0 N 10.7 0.0 0.0
15:58 20.2 10.9 55 1031.6 6.9 WSW 10.7 0.0 0.0
15:59 20.3 11.0 55 1031.6 5.4 NE 10.7 0.0 0.0
16:00 20.3 11.0 55 1031.7 4.5 NW 9.8 0.0 0.0
16:02 20.4 10.8 54 1031.4 11.4 NW 11.4 0.0 0.0
16:03 20.3 10.7 54 1031.5 8.3 NW 11.4 0.0 0.0
16:04 20.3 10.7 54 1031.4 13.0 NW 13.0 0.0 0.0
16:05 20.3 11.0 55 1031.5 7.6 S 13.0 0.0 0.0
16:06 20.3 11.0 55 1031.6 9.8 N 13.0 0.0 0.0
16:07 20.2 10.6 54 1031.5 10.7 WNW 13.0 0.0 0.0
16:08 20.2 10.6 54 1031.5 10.7 N 13.0 0.0 0.0
16:09 20.2 10.6 54 1031.6 9.2 N 13.0 0.0 0.0
16:10 20.2 10.9 55 1031.6 9.8 W 13.0 0.0 0.0
16:11 20.2 10.9 55 1031.6 10.7 WNW 13.0 0.0 0.0
16:12 20.1 10.5 54 1031.4 8.3 NW 13.0 0.0 0.0
16:13 20.0 10.7 55 1031.6 12.1 WNW 13.0 0.0 0.0
16:14 20.0 10.7 55 1031.7 12.1 WNW 13.0 0.0 0.0
16:15 19.9 10.6 55 1031.5 11.4 SSW 12.1 0.0 0.0
16:16 19.7 10.7 56 1031.5 9.2 WNW 12.1 0.0 0.0
16:17 19.7 11.0 57 1031.5 6.0 W 12.1 0.0 0.0
16:18 19.7 10.7 56 1031.5 9.8 NE 12.1 0.0 0.0
16:20 19.8 10.8 56 1031.6 6.9 WNW 12.1 0.0 0.0
16:21 19.8 10.5 55 1031.5 9.8 N 12.1 0.0 0.0
16:22 19.8 10.5 55 1031.6 6.9 N 12.1 0.0 0.0
16:23 19.8 10.8 56 1031.5 8.3 NW 12.1 0.0 0.0
16:24 19.8 10.8 56 1031.6 13.0 N 13.0 0.0 0.0
16:25 19.8 10.8 56 1031.6 7.6 NW 13.0 0.0 0.0
16:26 19.7 10.7 56 1031.6 9.2 N 13.0 0.0 0.0
16:27 19.7 10.7 56 1031.6 9.2 N 13.0 0.0 0.0
16:28 19.8 10.8 56 1031.6 6.0 NW 13.0 0.0 0.0
16:29 19.9 11.4 58 1031.7 2.2 N 13.0 0.0 0.0
16:30 20.0 11.2 57 1031.6 10.7 NW 13.0 0.0 0.0
16:31 20.0 11.2 57 1031.7 9.2 NW 13.0 0.0 0.0
16:32 20.0 11.2 57 1031.6 6.0 SW 13.0 0.0 0.0
16:33 20.0 11.2 57 1031.5 7.6 WSW 13.0 0.0 0.0
16:34 20.0 11.2 57 1031.7 10.7 NW 13.0 0.0 0.0
16:35 20.0 11.0 56 1031.6 7.6 NW 10.7 0.0 0.0
16:36 19.9 10.3 54 1031.8 9.2 N 10.7 0.0 0.0
16:38 19.8 10.5 55 1031.5 7.6 N 10.7 0.0 0.0
16:39 19.9 10.6 55 1031.5 6.9 E 10.7 0.0 0.0
16:40 19.9 10.6 55 1031.5 4.5 NW 10.7 0.0 0.0
16:41 20.0 10.7 55 1031.5 6.0 SW 10.7 0.0 0.0
16:42 20.1 10.8 55 1031.5 10.7 WNW 10.7 0.0 0.0
16:43 20.1 11.1 56 1031.5 5.4 NW 10.7 0.0 0.0
16:44 20.1 11.1 56 1031.4 4.5 N 10.7 0.0 0.0
16:45 20.1 11.1 56 1031.5 8.3 N 10.7 0.0 0.0
16:46 20.2 10.9 55 1031.5 7.6 NW 10.7 0.0 0.0
16:47 20.1 10.2 53 1031.4 8.3 NE 10.7 0.0 0.0
16:48 20.1 10.5 54 1031.5 5.4 NW 10.7 0.0 0.0
16:49 20.1 10.5 54 1031.4 6.0 N 10.7 0.0 0.0
16:50 20.1 10.5 54 1031.3 8.3 N 10.7 0.0 0.0
16:51 20.0 10.7 55 1031.4 7.6 NE 10.7 0.0 0.0
16:52 20.0 10.7 55 1031.3 7.6 W 10.7 0.0 0.0
16:53 20.0 10.4 54 1031.4 6.9 NE 8.3 0.0 0.0
16:55 20.0 10.4 54 1031.4 8.3 N 8.3 0.0 0.0
16:56 20.0 10.4 54 1031.5 7.6 NW 8.3 0.0 0.0
16:57 20.0 10.4 54 1031.5 5.4 N 8.3 0.0 0.0
16:58 20.0 10.4 54 1031.4 6.0 N 8.3 0.0 0.0
16:59 20.0 10.7 55 1031.4 5.4 N 8.3 0.0 0.0
17:00 20.1 10.8 55 1031.4 6.9 NW 8.3 0.0 0.0
17:01 20.1 10.8 55 1031.4 10.7 NW 10.7 0.0 0.0
17:02 20.1 10.8 55 1031.4 10.7 NW 10.7 0.0 0.0
17:03 20.1 10.8 55 1031.4 9.2 NE 10.7 0.0 0.0
17:04 20.1 10.8 55 1031.4 8.3 NE 10.7 0.0 0.0
17:05 20.1 10.8 55 1031.4 6.9 NE 10.7 0.0 0.0
17:06 20.0 10.7 55 1031.4 12.1 N 12.1 0.0 0.0
17:07 19.8 10.5 55 1031.5 6.9 NW 12.1 0.0 0.0
17:08 19.8 10.5 55 1031.5 6.0 NW 12.1 0.0 0.0
17:09 19.7 10.7 56 1031.4 6.9 N 12.1 0.0 0.0
17:10 19.7 10.7 56 1031.4 7.6 NW 12.1 0.0 0.0
17:11 19.5 10.5 56 1031.4 7.6 N 12.1 0.0 0.0
17:12 19.5 10.5 56 1031.4 7.6 WNW 12.1 0.0 0.0
17:13 19.4 10.4 56 1031.3 12.1 N 12.1 0.0 0.0
17:14 19.3 10.0 55 1031.5 9.8 WNW 12.1 0.0 0.0
17:15 19.1 10.1 56 1031.5 7.6 N 12.1 0.0 0.0
17:17 18.9 10.5 58 1031.4 6.9 NW 13.0 0.0 0.0
17:18 18.9 10.5 58 1031.3 7.6 N 13.0 0.0 0.0
17:19 18.8 10.4 58 1031.4 6.9 N 13.0 0.0 0.0
17:20 18.8 10.4 58 1031.4 8.3 NW 13.0 0.0 0.0
17:21 18.8 10.4 58 1031.4 9.8 NE 13.0 0.0 0.0
17:22 18.8 10.4 58 1031.4 11.4 W 13.0 0.0 0.0
17:23 18.8 10.4 58 1031.5 9.8 NW 13.0 0.0 0.0
17:24 18.8 10.4 58 1031.4 9.2 N 13.0 0.0 0.0
17:25 18.8 10.4 58 1031.6 8.3 W 13.0 0.0 0.0
17:26 18.8 10.6 59 1031.4 6.9 W 13.0 0.0 0.0
17:27 18.9 10.5 58 1031.4 8.3 NW 11.4 0.0 0.0
17:28 18.9 10.5 58 1031.4 9.8 NW 11.4 0.0 0.0
17:29 18.9 10.5 58 1031.4 9.2 N 11.4 0.0 0.0
17:30 18.9 10.5 58 1031.4 9.8 NW 11.4 0.0 0.0
17:31 18.9 10.7 59 1031.5 9.8 NW 11.4 0.0 0.0
17:32 18.9 10.7 59 1031.5 11.4 NW 11.4 0.0 0.0
17:33 18.9 10.5 58 1031.4 9.8 NW 11.4 0.0 0.0
17:35 18.9 10.5 58 1031.3 6.9 NW 11.4 0.0 0.0
17:36 18.8 10.6 59 1031.5 7.6 W 11.4 0.0 0.0
17:37 18.8 10.6 59 1031.3 9.2 NW 11.4 0.0 0.0
17:38 18.8 10.9 60 1031.3 4.5 S 11.4 0.0 0.0
17:39 19.0 11.1 60 1031.4 6.9 W 11.4 0.0 0.0
17:40 19.0 10.8 59 1031.5 6.9 S 11.4 0.0 0.0
17:41 19.1 10.9 59 1031.4 9.2 NW 11.4 0.0 0.0
17:42 19.1 10.9 59 1031.4 9.2 NW 11.4 0.0 0.0
17:43 19.1 10.7 58 1031.4 10.7 NW 10.7 0.0 0.0
17:44 19.1 10.9 59 1031.4 7.6 SW 10.7 0.0 0.0
17:45 19.1 10.7 58 1031.4 13.0 N 13.0 0.0 0.0
17:46 19.1 10.7 58 1031.4 8.3 NE 13.0 0.0 0.0
17:47 19.0 10.6 58 1031.3 7.6 N 13.0 0.0 0.0
17:48 19.0 10.6 58 1031.4 5.4 N 13.0 0.0 0.0
17:49 19.0 10.6 58 1031.4 7.6 NW 13.0 0.0 0.0
17:50 19.0 10.6 58 1031.4 8.3 W 13.0 0.0 0.0
17:51 19.0 10.6 58 1031.4 9.2 N 13.0 0.0 0.0
17:52 19.0 10.8 59 1031.3 6.9 N 13.0 0.0 0.0
17:53 19.0 10.6 58 1031.4 6.0 WNW 13.0 0.0 0.0
17:55 19.0 10.6 58 1031.4 7.6 N 9.8 0.0 0.0
17:56 19.0 10.6 58 1031.4 9.2 N 9.8 0.0 0.0
17:57 18.9 10.5 58 1031.2 12.1 NW 12.1 0.0 0.0
17:58 18.9 10.7 59 1031.2 9.8 W 12.1 0.0 0.0
17:59 18.9 10.7 59 1031.4 13.6 N 13.6 0.0 0.0
18:00 18.8 10.6 59 1031.3 7.6 N 13.6 0.0 0.0
18:01 18.8 10.6 59 1031.3 7.6 N 13.6 0.0 0.0
18:02 18.7 10.3 58 1031.4 7.6 NE 13.6 0.0 0.0
18:03 18.7 10.3 58 1031.4 3.8 N 13.6 0.0 0.0
18:04 18.7 10.3 58 1031.3 3.8 NW 13.6 0.0 0.0
18:05 18.6 10.4 59 1031.3 9.8 N 13.6 0.0 0.0
18:06 18.6 10.4 59 1031.2 8.3 WNW 13.6 0.0 0.0
18:07 18.6 10.4 59 1031.3 12.1 NW 13.6 0.0 0.0
18:08 18.5 10.6 60 1031.4 9.2 NW 13.6 0.0 0.0
18:09 18.5 10.6 60 1031.1 7.6 NW 13.6 0.0 0.0
18:10 18.4 10.5 60 1031.1 6.0 NW 12.1 0.0 0.0
18:11 18.4 10.8 61 1031.3 9.8 NW 12.1 0.0 0.0
18:12 18.3 10.7 61 1031.1 9.2 NE 12.1 0.0 0.0
18:14 18.4 10.8 61 1031.1 8.3 N 12.1 0.0 0.0
18:15 18.4 10.8 61 1031.2 8.3 N 12.1 0.0 0.0
18:16 18.4 11.0 62 1031.2 6.0 W 12.1 0.0 0.0
18:17 18.4 10.8 61 1031.3 6.0 N 9.8 0.0 0.0
18:18 18.4 10.8 61 1031.4 6.9 WNW 9.8 0.0 0.0
18:19 18.3 10.7 61 1031.3 12.1 N 12.1 0.0 0.0
18:20 18.3 10.9 62 1031.2 9.8 E 12.1 0.0 0.0
18:21 18.3 10.9 62 1031.3 5.4 S 12.1 0.0 0.0
18:22 18.3 10.9 62 1031.2 9.8 NW 12.1 0.0 0.0
18:23 18.3 10.7 61 1031.3 9.2 NW 12.1 0.0 0.0
18:24 18.3 10.9 62 1031.3 13.0 S 13.0 0.0 0.0
18:25 18.3 10.9 62 1031.3 12.1 NW 13.0 0.0 0.0
18:26 18.3 10.7 61 1031.3 5.4 W 13.0 0.0 0.0
18:27 18.3 10.9 62 1031.2 9.2 NW 13.0 0.0 0.0
18:28 18.3 10.9 62 1031.2 9.2 NW 13.0 0.0 0.0
18:29 18.3 10.9 62 1031.4 6.9 NE 13.0 0.0 0.0
18:30 18.3 10.9 62 1031.3 5.4 SE 13.0 0.0 0.0
18:31 18.3 10.9 62 1031.2 9.2 W 13.0 0.0 0.0
18:33 18.3 10.9 62 1031.3 10.7 SW 13.0 0.0 0.0
18:34 18.2 10.8 62 1031.4 9.2 N 12.1 0.0 0.0
18:35 18.2 10.8 62 1031.3 5.4 N 10.7 0.0 0.0
18:36 18.2 10.8 62 1031.3 10.7 NW 10.7 0.0 0.0
18:37 18.1 10.7 62 1031.3 8.3 NW 10.7 0.0 0.0
18:38 18.1 10.7 62 1031.3 10.7 NE 10.7 0.0 0.0
18:39 18.1 10.7 62 1031.2 8.3 WNW 10.7 0.0 0.0
18:40 18.1 10.7 62 1031.2 6.9 NE 10.7 0.0 0.0
18:41 18.1 11.0 63 1031.1 9.8 SW 10.7 0.0 0.0
18:42 18.1 11.0 63 1031.1 6.0 NW 10.7 0.0 0.0
18:43 18.1 11.0 63 1031.1 8.3 SE 11.4 0.0 0.0
18:44 18.1 11.0 63 1031.1 8.3 SE 11.4 0.0 0.0
18:45 18.0 10.9 63 1031.2 7.6 SE 11.4 0.0 0.0
18:46 18.0 10.9 63 1031.2 6.0 N 11.4 0.0 0.0
18:47 18.0 10.9 63 1031.2 4.5 N 11.4 0.0 0.0
18:48 18.0 11.1 64 1031.3 4.5 NW 11.4 0.0 0.0
18:49 18.1 11.0 63 1031.3 3.8 W 11.4 0.0 0.0
18:50 18.1 11.0 63 1031.1 5.4 NW 11.4 0.0 0.0
18:52 18.1 11.0 63 1031.2 9.8 WNW 11.4 0.0 0.0
18:53 18.1 11.0 63 1031.2 8.3 NW 9.8 0.0 0.0
18:54 18.0 10.9 63 1031.3 6.9 N 9.8 0.0 0.0
18:55 18.0 10.6 62 1031.2 6.0 W 9.8 0.0 0.0
18:56 18.0 10.6 62 1031.3 6.9 N 9.8 0.0 0.0
18:57 18.0 10.6 62 1031.3 6.9 N 9.8 0.0 0.0
18:58 18.0 10.6 62 1031.3 6.9 N 9.8 0.0 0.0
18:59 17.9 10.5 62 1031.4 6.9 E 9.8 0.0 0.0
19:00 17.9 10.5 62 1031.4 6.9 E 9.8 0.0 0.0
19:01 17.9 10.5 62 1031.2 7.6 W 9.8 0.0 0.0
19:02 17.9 10.5 62 1031.2 6.0 W 9.8 0.0 0.0
19:03 17.9 10.8 63 1031.3 8.3 WNW 9.8 0.0 0.0
19:04 17.9 10.5 62 1031.3 5.4 NE 9.2 0.0 0.0
19:05 17.9 10.5 62 1031.2 4.5 NW 9.2 0.0 0.0
19:06 17.9 10.5 62 1031.1 8.3 N 9.2 0.0 0.0
19:07 17.9 10.5 62 1031.2 7.6 N 9.8 0.0 0.0
19:08 17.9 10.5 62 1031.3 5.4 SW 9.8 0.0 0.0
19:09 17.8 10.7 63 1031.1 11.4 N 11.4 0.0 0.0
19:10 17.8 10.7 63 1031.3 9.2 N 11.4 0.0 0.0
19:11 17.7 10.6 63 1031.3 5.4 E 11.4 0.0 0.0
19:12 17.7 10.6 63 1031.2 6.0 NE 11.4 0.0 0.0
19:13 17.7 10.6 63 1031.1 6.0 N 11.4 0.0 0.0
19:14 17.7 10.6 63 1031.2 5.4 NW 11.4 0.0 0.0
19:16 17.7 10.6 63 1031.2 6.9 N 11.4 0.0 0.0
19:17 17.8 10.7 63 1031.3 5.4 NW 11.4 0.0 0.0
19:18 17.8 10.7 63 1031.3 6.9 NW 11.4 0.0 0.0
19:19 17.8 10.7 63 1031.3 3.8 N 9.2 0.0 0.0
19:20 17.8 10.7 63 1031.2 9.2 NW 9.2 0.0 0.0
19:21 17.8 10.7 63 1031.2 9.2 NW 9.2 0.0 0.0
19:22 17.8 10.7 63 1031.3 9.2 NW 9.2 0.0 0.0
19:23 17.8 10.7 63 1031.2 4.5 N 9.2 0.0 0.0
19:24 17.8 10.7 63 1031.0 8.3 N 9.2 0.0 0.0
19:25 17.8 10.7 63 1031.0 9.2 SE 9.2 0.0 0.0
19:26 17.8 10.7 63 1031.2 6.9 N 9.2 0.0 0.0
19:27 17.8 10.7 63 1031.0 6.0 NW 9.2 0.0 0.0
19:28 17.8 10.7 63 1031.2 6.9 N 9.2 0.0 0.0
19:29 17.8 10.7 63 1031.1 6.9 N 9.2 0.0 0.0
19:30 17.7 10.6 63 1031.2 6.9 N 9.2 0.0 0.0
19:31 17.7 10.6 63 1031.1 7.6 N 9.2 0.0 0.0
19:32 17.7 10.3 62 1031.2 3.8 N 9.2 0.0 0.0
19:34 17.7 10.3 62 1031.1 5.4 NE 9.2 0.0 0.0
19:35 17.6 10.2 62 1031.1 6.0 NW 7.6 0.0 0.0
19:36 17.6 10.2 62 1031.1 6.0 N 7.6 0.0 0.0
19:37 17.6 10.2 62 1031.0 8.3 NNE 8.3 0.0 0.0
19:38 17.6 10.5 63 1031.1 3.8 N 8.3 0.0 0.0
19:39 17.6 10.5 63 1031.0 5.4 NW 8.3 0.0 0.0
19:40 17.5 10.4 63 1030.9 5.4 NW 8.3 0.0 0.0
19:41 17.6 10.5 63 1030.8 8.3 N 8.3 0.0 0.0
19:42 17.5 10.4 63 1031.0 8.3 NE 8.3 0.0 0.0
19:43 17.5 10.4 63 1031.0 5.4 N 8.3 0.0 0.0
19:44 17.5 10.4 63 1030.9 6.0 NNE 8.3 0.0 0.0
19:45 17.5 10.4 63 1030.9 5.4 NE 8.3 0.0 0.0
19:46 17.5 10.4 63 1031.0 5.4 SW 8.3 0.0 0.0
19:47 17.5 10.4 63 1031.0 3.8 W 8.3 0.0 0.0
19:48 17.4 10.3 63 1031.0 3.1 N 8.3 0.0 0.0
19:49 17.4 10.3 63 1030.9 6.9 WNW 8.3 0.0 0.0
19:50 17.3 10.2 63 1031.1 6.0 N 9.2 0.0 0.0
19:51 17.3 10.2 63 1030.9 6.9 N 9.2 0.0 0.0
19:53 17.3 10.2 63 1030.9 6.9 SE 9.2 0.0 0.0
19:54 17.2 10.3 64 1030.8 5.4 N 9.2 0.0 0.0
19:55 17.2 10.3 64 1030.8 6.9 NW 9.2 0.0 0.0
19:56 17.2 10.3 64 1030.9 3.1 NE 9.2 0.0 0.0
19:57 17.2 10.3 64 1030.9 3.8 S 9.2 0.0 0.0
19:58 17.2 10.3 64 1030.8 4.5 N 9.2 0.0 0.0
19:59 17.1 10.2 64 1030.8 8.3 N 9.2 0.0 0.0
20:00 17.1 10.2 64 1030.9 6.0 N 8.3 0.0 0.0
20:01 17.1 10.2 64 1030.8 6.0 N 8.3 0.0 0.0
20:02 17.1 10.2 64 1030.8 6.9 N 8.3 0.0 0.0
20:03 17.1 10.2 64 1030.8 6.0 WNW 8.3 0.0 0.0
20:04 17.1 10.2 64 1030.8 5.4 WNW 8.3 0.0 0.0
20:05 17.1 10.2 64 1030.7 3.8 ENE 8.3 0.0 0.0
20:06 17.0 10.1 64 1030.7 5.4 NW 8.3 0.0 0.0
20:07 17.0 9.9 63 1030.9 5.4 N 8.3 0.0 0.0
20:08 17.0 9.9 63 1030.7 4.5 NE 8.3 0.0 0.0
20:09 16.9 9.8 63 1030.8 3.8 NW 6.9 0.0 0.0
20:10 16.9 9.8 63 1030.9 3.8 NW 6.9 0.0 0.0
20:11 16.9 10.1 64 1030.7 5.4 N 6.9 0.0 0.0
20:13 16.8 10.0 64 1030.7 2.2 NW 6.0 0.0 0.0
20:14 16.8 10.0 64 1030.8 4.5 N 6.0 0.0 0.0
20:15 16.8 10.0 64 1031.0 3.8 N 6.0 0.0 0.0
20:16 16.7 9.9 64 1030.7 6.0 NW 6.0 0.0 0.0
20:17 16.7 9.9 64 1030.9 3.8 W 6.0 0.0 0.0
20:18 16.7 9.9 64 1030.9 3.8 W 6.0 0.0 0.0
20:19 16.7 9.9 64 1030.9 2.2 N 6.0 0.0 0.0
20:20 16.7 9.9 64 1030.7 3.1 SE 6.0 0.0 0.0
20:21 16.7 9.9 64 1030.7 2.2 NE 6.0 0.0 0.0
20:22 16.6 9.8 64 1030.7 3.8 N 6.0 0.0 0.0
20:23 16.6 9.8 64 1030.7 6.0 NE 6.0 0.0 0.0
20:24 16.6 9.8 64 1030.6 5.4 N 6.0 0.0 0.0
20:25 16.5 9.7 64 1030.8 6.0 NW 6.0 0.0 0.0
20:26 16.5 9.9 65 1030.7 3.8 S 6.0 0.0 0.0
20:27 16.4 9.8 65 1030.7 3.8 N 6.9 0.0 0.0
20:28 16.4 9.8 65 1030.8 7.6 N 7.6 0.0 0.0
20:29 16.4 9.8 65 1031.0 5.4 SW 7.6 0.0 0.0
20:31 16.3 9.7 65 1030.6 3.1 WNW 7.6 0.0 0.0
20:32 16.2 9.6 65 1030.8 3.8 N 7.6 0.0 0.0
20:33 16.2 9.6 65 1030.8 4.5 N 7.6 0.0 0.0
20:34 16.1 9.5 65 1030.6 6.9 NE 7.6 0.0 0.0
20:35 16.1 9.5 65 1030.6 7.6 N 7.6 0.0 0.0
20:36 16.0 9.4 65 1030.8 5.4 NE 7.6 0.0 0.0
20:37 16.0 9.4 65 1030.8 5.4 NE 7.6 0.0 0.0
20:38 16.0 9.4 65 1030.7 3.8 E 7.6 0.0 0.0
20:39 15.9 9.3 65 1030.8 4.5 NNW 7.6 0.0 0.0
20:40 15.9 9.3 65 1030.8 4.5 SE 7.6 0.0 0.0
20:41 15.8 9.2 65 1030.8 6.9 NW 7.6 0.0 0.0
20:42 15.7 9.1 65 1030.8 4.5 NW 7.6 0.0 0.0
20:43 15.7 9.1 65 1030.8 2.2 NW 7.6 0.0 0.0
20:44 15.6 9.3 66 1030.9 5.4 N 7.6 0.0 0.0
20:45 15.6 9.3 66 1030.8 4.5 N 7.6 0.0 0.0
20:46 15.4 9.1 66 1030.8 4.5 N 6.9 0.0 0.0
20:47 15.4 9.1 66 1030.9 6.9 E 6.9 0.0 0.0
20:48 15.3 9.0 66 1030.8 5.4 NW 6.9 0.0 0.0
20:50 15.2 9.1 67 1030.8 6.9 NW 6.9 0.0 0.0
20:51 15.2 9.1 67 1030.8 5.4 W 6.9 0.0 0.0
20:52 15.1 9.0 67 1030.8 3.1 NW 6.9 0.0 0.0
20:53 15.0 8.9 67 1031.0 3.1 N 6.9 0.0 0.0
20:54 15.0 8.9 67 1030.8 3.1 NW 6.9 0.0 0.0
20:55 14.9 9.1 68 1030.8 3.8 WNW 6.9 0.0 0.0
20:56 14.9 9.1 68 1030.8 3.1 NE 6.9 0.0 0.0
20:57 14.9 9.1 68 1030.8 3.1 N 6.9 0.0 0.0
20:58 14.8 9.0 68 1030.9 6.9 WNW 8.3 0.0 0.0
20:59 14.7 8.9 68 1030.6 3.8 N 8.3 0.0 0.0
21:00 14.7 9.1 69 1030.7 3.8 NW 8.3 0.0 0.0
21:01 14.7 9.1 69 1030.8 3.8 NW 8.3 0.0 0.0
21:02 14.5 8.9 69 1030.8 3.1 NE 8.3 0.0 0.0
21:03 14.5 8.9 69 1030.8 5.4 NW 8.3 0.0 0.0
21:04 14.5 9.1 70 1030.7 5.4 N 8.3 0.0 0.0
21:05 14.4 9.0 70 1030.8 6.9 N 8.3 0.0 0.0
21:06 14.3 8.9 70 1030.9 3.8 N 8.3 0.0 0.0
21:07 14.3 8.9 70 1030.8 3.8 N 8.3 0.0 0.0
21:09 14.2 8.8 70 1030.8 4.5 WNW 6.9 0.0 0.0
21:10 14.1 8.7 70 1030.9 4.5 NW 6.9 0.0 0.0
21:11 14.0 8.6 70 1031.0 3.8 NW 6.9 0.0 0.0
21:12 14.0 8.8 71 1030.8 4.5 N 6.9 0.0 0.0
21:14 13.9 8.7 71 1030.9 3.8 NW 6.9 0.0 0.0
21:15 13.8 8.6 71 1031.0 3.1 NE 6.9 0.0 0.0
21:16 13.8 8.6 71 1031.0 3.1 NW 6.9 0.0 0.0
21:17 13.7 8.5 71 1031.0 3.8 NE 6.9 0.0 0.0
21:18 13.7 8.5 71 1031.0 3.8 NE 6.9 0.0 0.0
21:19 13.7 8.5 71 1030.9 3.8 N 6.9 0.0 0.0
21:20 13.6 8.7 72 1031.1 3.8 N 4.5 0.0 0.0
21:21 13.6 8.7 72 1031.0 5.4 N 5.4 0.0 0.0
21:22 13.5 8.6 72 1031.0 3.1 NE 5.4 0.0 0.0
21:23 13.5 8.6 72 1030.9 2.2 E 5.4 0.0 0.0
21:24 13.5 8.6 72 1030.9 3.1 NE 5.4 0.0 0.0
21:25 13.4 8.5 72 1031.0 3.8 NE 5.4 0.0 0.0
21:26 13.4 8.5 72 1031.0 3.1 NW 5.4 0.0 0.0
21:27 13.4 8.5 72 1030.8 3.1 W 5.4 0.0 0.0
21:28 13.3 8.4 72 1030.8 2.2 N 5.4 0.0 0.0
21:29 13.2 8.3 72 1031.0 4.5 NE 5.4 0.0 0.0
21:30 13.2 8.5 73 1030.9 4.5 N 5.4 0.0 0.0
21:31 13.2 8.5 73 1030.9 3.1 NW 5.4 0.0 0.0
21:33 13.1 8.4 73 1031.0 3.8 N 4.5 0.0 0.0
21:34 13.1 8.4 73 1031.1 3.8 NW 4.5 0.0 0.0
21:35 13.1 8.4 73 1031.0 4.5 N 4.5 0.0 0.0
21:36 13.0 8.3 73 1031.1 3.1 NE 4.5 0.0 0.0
21:37 13.0 8.3 73 1031.0 3.1 NE 4.5 0.0 0.0
21:38 13.0 8.5 74 1031.1 2.2 N 4.5 0.0 0.0
21:39 13.0 8.5 74 1031.1 3.1 NW 4.5 0.0 0.0
21:40 12.9 8.4 74 1031.1 3.8 WNW 4.5 0.0 0.0
21:41 12.9 8.4 74 1031.1 3.1 WNW 4.5 0.0 0.0
21:42 12.8 8.3 74 1031.2 4.5 NW 4.5 0.0 0.0
21:43 12.8 8.3 74 1031.1 3.1 N 4.5 0.0 0.0
21:44 12.8 8.3 74 1031.1 3.1 NW 4.5 0.0 0.0
21:45 12.8 8.3 74 1031.1 3.8 W 4.5 0.0 0.0
21:46 12.7 8.2 74 1031.1 3.1 NW 4.5 0.0 0.0
21:47 12.7 8.2 74 1031.0 3.8 N 4.5 0.0 0.0
21:48 12.7 8.2 74 1031.1 3.8 NW 4.5 0.0 0.0
21:49 12.6 8.1 74 1031.1 1.6 N 4.5 0.0 0.0
21:50 12.6 8.1 74 1031.0 3.8 NW 4.5 0.0 0.0
21:52 12.6 8.1 74 1031.1 2.2 NE 3.8 0.0 0.0
21:53 12.5 8.0 74 1031.2 2.2 N 3.8 0.0 0.0
21:54 12.5 8.2 75 1030.9 3.1 ENE 3.8 0.0 0.0
21:55 12.5 8.2 75 1031.0 3.8 N 3.8 0.0 0.0
21:56 12.5 8.2 75 1031.0 3.8 N 3.8 0.0 0.0
21:57 12.5 8.2 75 1031.1 2.2 NE 3.8 0.0 0.0
21:58 12.4 8.1 75 1031.0 2.2 E 3.8 0.0 0.0
21:59 12.4 8.1 75 1031.1 1.6 N 3.8 0.0 0.0
22:00 12.4 8.1 75 1031.0 3.1 N 3.8 0.0 0.0
22:01 12.4 8.1 75 1030.9 3.1 N 3.8 0.0 0.0
22:02 12.3 8.0 75 1031.1 3.1 N 3.8 0.0 0.0
22:03 12.3 8.0 75 1031.2 2.2 N 3.8 0.0 0.0
22:04 12.3 8.0 75 1031.1 3.1 E 3.8 0.0 0.0
22:05 12.3 8.0 75 1031.2 2.2 NE 3.8 0.0 0.0
22:06 12.2 7.9 75 1031.1 2.2 S 3.8 0.0 0.0
22:07 12.2 7.9 75 1031.0 2.2 NW 3.8 0.0 0.0
22:08 12.2 7.9 75 1031.1 3.1 NE 3.8 0.0 0.0
22:09 12.1 8.0 76 1031.2 1.6 N 3.8 0.0 0.0
22:11 12.1 8.0 76 1031.1 2.2 NNE 3.8 0.0 0.0
22:12 12.1 8.0 76 1031.1 3.8 N 3.8 0.0 0.0
22:13 12.0 7.9 76 1031.2 3.1 NE 3.8 0.0 0.0
22:14 12.0 7.9 76 1031.1 2.2 NE 3.8 0.0 0.0
22:15 12.0 7.9 76 1031.1 3.1 N 3.8 0.0 0.0
22:16 12.0 7.9 76 1031.1 3.1 NW 3.8 0.0 0.0
22:17 12.0 7.9 76 1031.2 3.1 NE 3.8 0.0 0.0
22:18 12.0 7.9 76 1031.2 3.1 NE 3.8 0.0 0.0
22:19 12.0 8.1 77 1031.2 3.8 NE 3.8 0.0 0.0
22:20 12.0 7.9 76 1031.0 3.1 NE 3.8 0.0 0.0
22:21 12.0 8.1 77 1031.4 2.2 N 3.8 0.0 0.0
22:22 12.0 8.1 77 1031.2 3.1 NE 3.8 0.0 0.0
22:23 12.0 8.1 77 1031.3 1.6 N 3.8 0.0 0.0
22:24 11.9 8.0 77 1031.2 1.6 N 3.8 0.0 0.0
22:25 11.9 8.0 77 1031.2 2.2 E 3.8 0.0 0.0
22:26 11.9 8.0 77 1031.2 3.1 E 3.8 0.0 0.0
22:27 11.9 8.0 77 1031.3 2.2 NE 3.8 0.0 0.0
22:29 11.9 8.0 77 1031.1 3.1 E 3.1 0.0 0.0
22:30 11.8 7.9 77 1031.3 3.1 N 3.1 0.0 0.0
22:31 11.8 7.9 77 1031.4 1.6 NW 3.1 0.0 0.0
22:32 11.8 7.9 77 1031.3 3.1 NE 3.1 0.0 0.0
22:33 11.8 7.9 77 1031.3 3.1 NE 3.1 0.0 0.0
22:34 11.8 7.9 77 1031.3 2.2 N 3.8 0.0 0.0
22:35 11.8 7.9 77 1031.3 3.8 E 3.8 0.0 0.0
22:36 11.8 7.9 77 1031.2 3.8 N 3.8 0.0 0.0
22:37 11.8 7.9 77 1031.2 3.1 NE 3.8 0.0 0.0
22:38 11.8 8.1 78 1031.3 3.8 N 3.8 0.0 0.0
22:39 11.8 8.1 78 1031.2 4.5 N 4.5 0.0 0.0
22:40 11.7 8.0 78 1031.1 5.4 NW 5.4 0.0 0.0
22:41 11.7 8.0 78 1030.9 2.2 NE 5.4 0.0 0.0
22:42 11.7 8.0 78 1031.1 4.5 NW 5.4 0.0 0.0
22:43 11.7 8.0 78 1031.1 3.8 NE 5.4 0.0 0.0
22:44 11.7 8.0 78 1031.0 4.5 ENE 5.4 0.0 0.0
22:45 11.7 8.0 78 1031.1 3.8 N 5.4 0.0 0.0
22:46 11.7 8.2 79 1031.1 3.1 N 5.4 0.0 0.0
22:48 11.7 8.2 79 1031.0 3.1 NE 5.4 0.0 0.0
22:49 11.7 8.2 79 1031.2 4.5 N 5.4 0.0 0.0
22:50 11.6 8.1 79 1031.1 3.1 N 4.5 0.0 0.0
22:51 11.6 8.1 79 1031.0 3.8 NW 4.5 0.0 0.0
22:52 11.6 8.1 79 1031.0 3.8 NW 4.5 0.0 0.0
22:53 11.6 8.1 79 1030.9 3.1 N 4.5 0.0 0.0
22:54 11.6 8.1 79 1031.0 3.1 N 4.5 0.0 0.0
22:55 11.6 8.1 79 1030.9 3.1 N 4.5 0.0 0.0
22:56 11.6 8.1 79 1031.0 4.5 NE 4.5 0.0 0.0
22:57 11.6 8.1 79 1031.0 3.1 ENE 4.5 0.0 0.0
22:58 11.6 8.1 79 1030.8 3.8 NE 4.5 0.0 0.0
22:59 11.6 8.1 79 1031.1 5.4 NE 5.4 0.0 0.0
23:00 11.6 8.3 80 1031.1 4.5 NE 5.4 0.0 0.0
23:01 11.6 8.3 80 1031.0 4.5 NE 5.4 0.0 0.0
23:02 11.6 8.3 80 1031.1 4.5 NE 5.4 0.0 0.0
23:03 11.6 8.3 80 1031.2 4.5 NE 5.4 0.0 0.0
23:04 11.6 8.3 80 1031.0 4.5 NE 5.4 0.0 0.0
23:05 11.6 8.3 80 1031.0 3.8 NE 5.4 0.0 0.0
23:06 11.5 8.2 80 1030.9 5.4 NE 5.4 0.0 0.0
23:07 11.5 8.2 80 1031.0 3.8 NE 5.4 0.0 0.0
23:08 11.5 8.2 80 1031.1 2.2 N 5.4 0.0 0.0
23:10 11.5 8.2 80 1031.1 3.1 NE 5.4 0.0 0.0
23:11 11.5 8.4 81 1031.1 3.8 ENE 5.4 0.0 0.0
23:12 11.5 8.4 81 1031.1 3.1 N 5.4 0.0 0.0
23:13 11.5 8.4 81 1031.2 3.1 NE 5.4 0.0 0.0
23:14 11.5 8.4 81 1031.1 3.1 N 5.4 0.0 0.0
23:15 11.5 8.4 81 1031.2 3.8 NE 5.4 0.0 0.0
23:16 11.4 8.3 81 1031.1 3.8 NE 4.5 0.0 0.0
23:17 11.5 8.4 81 1031.0 3.8 N 4.5 0.0 0.0
23:19 11.5 8.4 81 1031.1 3.1 NE 4.5 0.0 0.0
23:20 11.4 8.3 81 1030.8 3.8 N 4.5 0.0 0.0
23:21 11.4 8.3 81 1031.0 3.1 NE 4.5 0.0 0.0
23:23 11.4 8.3 81 1031.0 3.8 N 3.8 0.0 0.0
23:24 11.4 8.4 82 1030.9 3.1 N 3.8 0.0 0.0
23:25 11.4 8.4 82 1030.9 3.1 N 3.8 0.0 0.0
23:26 11.4 8.4 82 1031.1 3.8 N 3.8 0.0 0.0
23:27 11.4 8.4 82 1031.0 3.1 NE 3.8 0.0 0.0
23:28 11.4 8.4 82 1031.2 3.8 NE 3.8 0.0 0.0
23:29 11.4 8.4 82 1031.0 3.8 NE 3.8 0.0 0.0
23:30 11.3 8.3 82 1031.2 3.8 NNE 3.8 0.0 0.0
23:31 11.3 8.3 82 1031.0 3.1 NE 3.8 0.0 0.0
23:32 11.3 8.3 82 1031.1 3.8 NE 3.8 0.0 0.0
23:33 11.3 8.3 82 1031.1 3.8 N 3.8 0.0 0.0
23:34 11.3 8.3 82 1031.1 3.8 NE 3.8 0.0 0.0
23:35 11.3 8.3 82 1031.2 3.8 N 3.8 0.0 0.0
23:36 11.3 8.3 82 1031.1 4.5 NE 4.5 0.0 0.0
23:37 11.3 8.3 82 1031.0 3.8 NE 4.5 0.0 0.0
23:38 11.3 8.3 82 1031.2 3.1 N 4.5 0.0 0.0
23:39 11.3 8.3 82 1031.1 3.8 NE 4.5 0.0 0.0
23:40 11.3 8.5 83 1031.2 4.5 NE 4.5 0.0 0.0
23:41 11.3 8.5 83 1031.1 3.1 N 4.5 0.0 0.0
23:42 11.3 8.5 83 1031.2 3.1 N 4.5 0.0 0.0
23:43 11.3 8.5 83 1031.0 4.5 N 4.5 0.0 0.0
23:44 11.3 8.5 83 1031.1 3.8 E 4.5 0.0 0.0
23:45 11.3 8.5 83 1031.2 2.2 N 4.5 0.0 0.0
23:46 11.3 8.5 83 1031.0 3.8 E 4.5 0.0 0.0
23:47 11.3 8.5 83 1031.1 3.8 N 4.5 0.0 0.0
23:48 11.3 8.5 83 1031.1 3.1 N 4.5 0.0 0.0
23:49 11.3 8.5 83 1031.2 3.8 N 4.5 0.0 0.0
23:51 11.3 8.5 83 1031.1 4.5 NW 4.5 0.0 0.0
23:52 11.3 8.5 83 1031.2 2.2 NE 4.5 0.0 0.0
23:53 11.3 8.7 84 1031.1 2.2 NE 4.5 0.0 0.0
23:54 11.3 8.7 84 1031.1 3.8 NE 4.5 0.0 0.0
23:55 11.3 8.7 84 1031.0 4.5 N 4.5 0.0 0.0
23:56 11.3 8.7 84 1031.1 5.4 NW 5.4 0.0 0.0
23:57 11.3 8.7 84 1031.0 4.5 NE 5.4 0.0 0.0
23:58 11.3 8.7 84 1031.1 4.5 N 5.4 0.0 0.0
23:59 11.3 8.7 84 1031.0 3.1 NW 5.4 0.0 0.0

UK - WEATHER STATION TOPSITES - UK World Weather Websites

This is a private weather station, never base important decisions or events on data from this weather station. Although every effort has been made to make the data as accurate as possible it does not meet MetOffice standards. It is proved as a guide of local weather conditions. We accept no liability for any loss which may arise from use of the data.

Copyright © Carnkie Weather 2009 - 2018.